M I D A S
Marine Information and Data Acquisition System
Tripno 1020 of the Zeeleeuw from 2005-12-08 07:33:22 to 2005-12-08 15:37:49
Back to CruiseResearch ActivitiesStationsMapUnderway DataData graphs

EquipmentUnitsComment
TimeDGPSUTC
LatitudeDGPSDM.mWGS84
LongitudeDGPSDM.mWGS84
TemperatureSBE03/SBE38deg celciusITS90
ConductivitySBE21S/mITS90
SalinitySBE21 Practical Salinity Units
ChlorophylAChelsea fluorimeterg/lCalibrated in Aceton
Missing or incorrect values are displayed as -999
Sea surface data collected by the RV Zeeleeuw from 2005-12-08 07:25:07 to 2005-12-08 15:48:48
                                                                                    Next 1000 lines
Time Latitude Longitude Temperature Conductivity Salinity ChlorophylA
2005-12-08 07:25:17 51°13.597 2°56.096 -999 3.08301 29.162362 -0.781249
2005-12-08 07:25:22 51°13.596 2°56.095 -999 3.079597 29.124387 -0.781249
2005-12-08 07:25:27 51°13.596 2°56.094 -999 3.079597 29.124387 -0.781249
2005-12-08 07:25:32 51°13.597 2°56.093 -999 3.081148 29.139078 -0.781249
2005-12-08 07:25:37 51°13.597 2°56.091 -999 3.075459 29.07962 -0.781249
2005-12-08 07:25:42 51°13.598 2°56.088 -999 3.081976 29.147727 -0.781249
2005-12-08 07:25:47 51°13.599 2°56.085 -999 3.081872 29.146646 -0.781249
2005-12-08 07:25:52 51°13.599 2°56.082 -999 3.081872 29.146646 -0.781249
2005-12-08 07:25:57 51°13.6 2°56.079 -999 3.07639 29.091636 -0.781249
2005-12-08 07:26:02 51°13.601 2°56.075 -999 3.051046 28.833752 -0.781249
2005-12-08 07:26:07 51°13.602 2°56.072 -999 3.017533 28.492356 -0.74754
2005-12-08 07:26:12 51°13.603 2°56.069 -999 2.99302 28.241355 -0.74754
2005-12-08 07:26:18 51°13.604 2°56.065 -999 2.972852 28.034319 -0.74754
2005-12-08 07:26:22 51°13.605 2°56.062 -999 2.972852 28.034319 -0.74754
2005-12-08 07:26:27 51°13.606 2°56.058 -999 2.96344 27.938589 -0.71383
2005-12-08 07:26:32 51°13.607 2°56.054 -999 2.95134 27.800342 -0.680121
2005-12-08 07:26:37 51°13.608 2°56.05 -999 2.941825 27.685513 -0.646411
2005-12-08 07:26:42 51°13.609 2°56.046 -999 2.941205 27.668197 -0.612702
2005-12-08 07:26:47 51°13.611 2°56.041 -999 2.934793 27.588662 -0.612702
2005-12-08 07:26:52 51°13.612 2°56.036 -999 2.934793 27.588662 -0.612702
2005-12-08 07:26:57 51°13.613 2°56.031 -999 2.934482 27.57534 -0.612702
2005-12-08 07:27:02 51°13.615 2°56.025 -999 2.932724 27.549909 -0.646411
2005-12-08 07:27:07 51°13.616 2°56.019 -999 2.932414 27.543813 -0.646411
2005-12-08 07:27:12 51°13.618 2°56.013 -999 2.938826 27.612422 -0.612702
2005-12-08 07:27:17 51°13.619 2°56.007 -999 2.947927 27.71402 -0.646411
2005-12-08 07:27:23 51°13.621 2°56 -999 2.952477 27.767035 -0.646411
2005-12-08 07:27:27 51°13.623 2°55.994 -999 2.952477 27.767035 -0.646411
2005-12-08 07:27:32 51°13.625 2°55.988 -999 2.965508 27.905947 -0.646411
2005-12-08 07:27:38 51°13.627 2°55.98 -999 2.976471 28.024954 -0.646411
2005-12-08 07:27:43 51°13.629 2°55.974 -999 2.985366 28.122558 -0.646411
2005-12-08 07:27:47 51°13.63 2°55.97 -999 2.995295 28.229521 -0.646411
2005-12-08 07:27:53 51°13.632 2°55.963 -999 2.995295 28.229521 -0.646411
2005-12-08 07:27:57 51°13.634 2°55.959 -999 2.998294 28.266653 -0.646411
2005-12-08 07:28:02 51°13.635 2°55.953 -999 3.001087 28.298686 -0.680121
2005-12-08 07:28:07 51°13.637 2°55.949 -999 3.00419 28.337673 -0.680121
2005-12-08 07:28:12 51°13.639 2°55.944 -999 3.008637 28.391437 -0.680121
2005-12-08 07:28:17 51°13.641 2°55.939 -999 3.012878 28.440101 -0.680121
2005-12-08 07:28:22 51°13.642 2°55.934 -999 3.012878 28.440101 -0.680121
2005-12-08 07:28:26 51°13.644 2°55.929 -999 3.015464 28.473028 -0.680121
2005-12-08 07:28:32 51°13.647 2°55.923 -999 3.014119 28.463487 -0.680121
2005-12-08 07:28:37 51°13.65 2°55.916 -999 3.012361 28.448884 -0.680121
2005-12-08 07:28:42 51°13.652 2°55.91 -999 3.007707 28.405569 -0.680121
2005-12-08 07:28:47 51°13.655 2°55.904 -999 2.998915 28.318371 -0.680121
2005-12-08 07:28:52 51°13.659 2°55.897 -999 2.999019 28.323166 -0.680121
2005-12-08 07:28:57 51°13.662 2°55.89 -999 2.999019 28.323166 -0.680121
2005-12-08 07:29:02 51°13.666 2°55.884 -999 2.996847 28.304235 -0.71383
2005-12-08 07:29:08 51°13.671 2°55.875 -999 2.995192 28.289952 -0.680121
2005-12-08 07:29:12 51°13.674 2°55.869 -999 2.991675 28.256255 -0.71383
2005-12-08 07:29:18 51°13.68 2°55.86 -999 2.988676 28.227949 -0.71383
2005-12-08 07:29:22 51°13.683 2°55.854 -999 2.988676 28.227949 -0.71383
2005-12-08 07:29:28 51°13.689 2°55.845 -999 2.991675 28.260707 -0.71383
2005-12-08 07:29:32 51°13.693 2°55.839 -999 2.996433 28.309583 -0.71383
2005-12-08 07:29:37 51°13.698 2°55.831 -999 3.007086 28.41998 -0.71383
2005-12-08 07:29:42 51°13.704 2°55.823 -999 3.019705 28.549449 -0.680121
2005-12-08 07:29:47 51°13.709 2°55.815 -999 3.02798 28.632851 -0.680121
2005-12-08 07:29:52 51°13.714 2°55.807 -999 3.02798 28.632851 -0.680121
2005-12-08 07:29:57 51°13.719 2°55.799 -999 3.040703 28.761984 -0.680121
2005-12-08 07:30:03 51°13.725 2°55.788 -999 3.045254 28.805762 -0.680121
2005-12-08 07:30:08 51°13.73 2°55.779 -999 3.060253 28.957983 -0.680121
2005-12-08 07:30:13 51°13.735 2°55.77 -999 3.069252 29.049806 -0.680121
2005-12-08 07:30:18 51°13.74 2°55.761 -999 3.07939 29.15203 -0.646411
2005-12-08 07:30:22 51°13.744 2°55.754 -999 3.07939 29.15203 -0.646411
2005-12-08 07:30:28 51°13.75 2°55.743 -999 3.089218 29.252567 -0.680121
2005-12-08 07:30:32 51°13.754 2°55.736 -999 3.093976 29.30084 -0.680121
2005-12-08 07:30:37 51°13.76 2°55.727 -999 3.097701 29.339828 -0.680121
2005-12-08 07:30:42 51°13.765 2°55.718 -999 3.095218 29.313066 -0.680121
2005-12-08 07:30:47 51°13.77 2°55.709 -999 3.091597 29.275935 -0.680121
2005-12-08 07:30:53 51°13.776 2°55.699 -999 3.091597 29.275935 -0.680121
2005-12-08 07:30:58 51°13.782 2°55.691 -999 3.08508 29.208497 -0.680121
2005-12-08 07:31:02 51°13.786 2°55.685 -999 3.093976 29.30084 -0.680121
2005-12-08 07:31:07 51°13.792 2°55.677 -999 3.090356 29.264478 -0.680121
2005-12-08 07:31:12 51°13.798 2°55.67 -999 3.080114 29.161902 -0.680121
2005-12-08 07:31:17 51°13.804 2°55.662 -999 3.064597 29.004172 -0.680121
2005-12-08 07:31:22 51°13.811 2°55.655 -999 3.064597 29.004172 -0.680121
2005-12-08 07:31:27 51°13.818 2°55.649 -999 3.060149 28.962223 -0.680121
2005-12-08 07:31:32 51°13.825 2°55.643 -999 3.042461 28.782625 -0.646411
2005-12-08 07:31:37 51°13.832 2°55.639 -999 3.029325 28.649151 -0.680121
2005-12-08 07:31:42 51°13.84 2°55.635 -999 3.019705 28.553198 -0.680121
2005-12-08 07:31:47 51°13.847 2°55.632 -999 3.018154 28.542245 -0.680121
2005-12-08 07:31:52 51°13.855 2°55.629 -999 3.018154 28.542245 -0.680121
2005-12-08 07:31:57 51°13.863 2°55.628 -999 3.016085 28.522142 -0.680121
2005-12-08 07:32:02 51°13.871 2°55.627 -999 3.017326 28.533604 -0.680121
2005-12-08 07:32:08 51°13.88 2°55.628 -999 3.031393 28.678291 -0.680121
2005-12-08 07:32:12 51°13.886 2°55.629 -999 3.04815 28.851177 -0.646411
2005-12-08 07:32:17 51°13.894 2°55.63 -999 3.056219 28.933277 -0.646411
2005-12-08 07:32:22 51°13.901 2°55.632 -999 3.056219 28.933277 -0.646411
2005-12-08 07:32:27 51°13.908 2°55.635 -999 3.062218 28.994515 -0.646411
2005-12-08 07:32:33 51°13.916 2°55.638 -999 3.063563 29.00706 -0.646411
2005-12-08 07:32:37 51°13.921 2°55.641 -999 3.080425 29.180467 -0.646411
2005-12-08 07:32:42 51°13.926 2°55.644 -999 3.083838 29.212373 -0.646411
2005-12-08 07:32:47 51°13.932 2°55.647 -999 3.095839 29.334189 -0.612702
2005-12-08 07:32:52 51°13.936 2°55.65 -999 3.095839 29.334189 -0.612702
2005-12-08 07:32:57 51°13.939 2°55.652 -999 3.103908 29.415631 -0.612702
2005-12-08 07:33:01 51°13.941 2°55.653 -999 3.109598 29.472928 -0.612702
2005-12-08 07:33:07 51°13.942 2°55.653 -999 3.120254 29.582284 -0.612702
2005-12-08 07:33:12 51°13.943 2°55.652 -999 3.105253 29.425859 -0.612702
2005-12-08 07:33:17 51°13.943 2°55.649 -999 3.115391 29.533643 -0.646411
2005-12-08 07:33:22 51°13.943 2°55.645 -999 3.115391 29.533643 -0.646411
2005-12-08 07:33:27 51°13.943 2°55.639 -999 3.109184 29.471687 -0.646411
2005-12-08 07:33:32 51°13.943 2°55.632 -999 3.10608 29.442257 -0.646411
2005-12-08 07:33:37 51°13.945 2°55.623 -999 3.094494 29.323183 -0.646411
2005-12-08 07:33:42 51°13.947 2°55.614 -999 3.102046 29.404614 -0.646411
2005-12-08 07:33:46 51°13.95 2°55.607 -999 3.10008 29.38479 -0.646411
2005-12-08 07:33:52 51°13.956 2°55.596 -999 3.10008 29.38479 -0.646411
2005-12-08 07:33:57 51°13.962 2°55.587 -999 3.098942 29.373638 -0.646411
2005-12-08 07:34:02 51°13.968 2°55.577 -999 3.102977 29.413599 -0.646411
2005-12-08 07:34:07 51°13.975 2°55.567 -999 3.10277 29.407569 -0.646411
2005-12-08 07:34:12 51°13.983 2°55.556 -999 3.0737 29.081066 -0.646411
2005-12-08 07:34:17 51°13.992 2°55.545 -999 3.053942 28.851133 -0.646411
2005-12-08 07:34:22 51°14.001 2°55.534 -999 3.053942 28.851133 -0.646411
2005-12-08 07:34:27 51°14.011 2°55.522 -999 3.055908 28.881486 -0.646411
2005-12-08 07:34:32 51°14.021 2°55.511 -999 3.050529 28.848019 -0.646411
2005-12-08 07:34:37 51°14.031 2°55.5 -999 3.031497 28.668829 -0.646411
2005-12-08 07:34:42 51°14.042 2°55.489 -999 3.015465 28.517159 -0.646411
2005-12-08 07:34:47 51°14.054 2°55.48 -999 2.997054 28.337639 -0.646411
2005-12-08 07:34:52 51°14.065 2°55.47 -999 2.997054 28.337639 -0.646411
2005-12-08 07:34:57 51°14.077 2°55.46 -999 2.988159 28.254464 -0.612702
2005-12-08 07:35:01 51°14.087 2°55.452 -999 2.981437 28.190977 -0.612702
2005-12-08 07:35:06 51°14.099 2°55.441 -999 2.980609 28.183824 -0.612702
2005-12-08 07:35:12 51°14.114 2°55.428 -999 2.990125 28.283901 -0.578993
2005-12-08 07:35:17 51°14.127 2°55.418 -999 2.992814 28.310493 -0.578993
2005-12-08 07:35:22 51°14.139 2°55.408 -999 2.992814 28.310493 -0.578993
2005-12-08 07:35:27 51°14.152 2°55.397 -999 2.998399 28.365841 -0.578993
2005-12-08 07:35:32 51°14.164 2°55.385 -999 3.010086 28.486447 -0.612702
2005-12-08 07:35:37 51°14.176 2°55.372 -999 3.00026 28.38454 -0.612702
2005-12-08 07:35:42 51°14.189 2°55.359 -999 3.000467 28.388194 -0.612702
2005-12-08 07:35:46 51°14.199 2°55.348 -999 3.002743 28.411964 -0.612702
2005-12-08 07:35:52 51°14.213 2°55.33 -999 2.999019 28.373815 -0.612702
2005-12-08 07:35:57 51°14.225 2°55.313 -999 2.999019 28.373815 -0.612702
2005-12-08 07:36:02 51°14.237 2°55.296 -999 2.992917 28.310829 -0.612702
2005-12-08 07:36:07 51°14.248 2°55.278 -999 2.997364 28.358768 -0.612702
2005-12-08 07:36:11 51°14.257 2°55.263 -999 3.004294 28.432659 -0.646411
2005-12-08 07:36:17 51°14.27 2°55.24 -999 2.99633 28.353185 -0.646411
2005-12-08 07:36:22 51°14.281 2°55.22 -999 2.99633 28.353185 -0.646411
2005-12-08 07:36:26 51°14.289 2°55.204 -999 2.987746 28.269473 -0.612702
2005-12-08 07:36:32 51°14.302 2°55.179 -999 2.974507 28.136427 -0.646411
2005-12-08 07:36:37 51°14.312 2°55.157 -999 2.979368 28.188665 -0.646411
2005-12-08 07:36:41 51°14.32 2°55.14 -999 2.981437 28.210268 -0.646411
2005-12-08 07:36:47 51°14.333 2°55.116 -999 2.98454 28.241933 -0.612702
2005-12-08 07:36:52 51°14.344 2°55.097 -999 2.98454 28.241933 -0.612702
2005-12-08 07:36:57 51°14.356 2°55.079 -999 2.986298 28.259555 -0.612702
2005-12-08 07:37:01 51°14.366 2°55.065 -999 2.989401 28.289735 -0.612702
2005-12-08 07:37:07 51°14.382 2°55.046 -999 3.001916 28.416773 -0.578993
2005-12-08 07:37:12 51°14.395 2°55.031 -999 3.011948 28.517902 -0.578993
2005-12-08 07:37:17 51°14.409 2°55.016 -999 3.01743 28.571464 -0.612702
2005-12-08 07:37:22 51°14.422 2°55.002 -999 3.01743 28.571464 -0.612702
2005-12-08 07:37:27 51°14.436 2°54.987 -999 3.021464 28.605371 -0.612702
2005-12-08 07:37:32 51°14.449 2°54.973 -999 3.031394 28.693366 -0.612702
2005-12-08 07:37:37 51°14.463 2°54.959 -999 3.042978 28.80467 -0.612702
2005-12-08 07:37:42 51°14.478 2°54.945 -999 3.071528 29.09652 -0.612702
2005-12-08 07:37:47 51°14.492 2°54.932 -999 3.08208 29.200863 -0.612702
2005-12-08 07:37:52 51°14.507 2°54.918 -999 3.101425 29.398882 -0.612702
2005-12-08 07:37:57 51°14.522 2°54.904 -999 3.101425 29.398882 -0.612702
2005-12-08 07:38:02 51°14.537 2°54.89 -999 3.103287 29.412217 -0.612702
2005-12-08 07:38:07 51°14.553 2°54.875 -999 3.132875 29.713077 -0.612702
2005-12-08 07:38:12 51°14.568 2°54.86 -999 3.151705 29.899673 -0.612702
2005-12-08 07:38:17 51°14.583 2°54.844 -999 3.177572 30.157821 -0.612702
2005-12-08 07:38:22 51°14.598 2°54.829 -999 3.177572 30.157821 -0.612702
2005-12-08 07:38:27 51°14.614 2°54.813 -999 3.197231 30.353227 -0.612702
2005-12-08 07:38:32 51°14.63 2°54.798 -999 3.223514 30.619123 -0.646411
2005-12-08 07:38:37 51°14.646 2°54.783 -999 3.238519 30.766491 -0.646411
2005-12-08 07:38:42 51°14.661 2°54.768 -999 3.253317 30.910884 -0.646411
2005-12-08 07:38:47 51°14.677 2°54.753 -999 3.268943 31.063997 -0.646411
2005-12-08 07:38:52 51°14.693 2°54.738 -999 3.268943 31.063997 -0.646411
2005-12-08 07:38:57 51°14.708 2°54.723 -999 3.284777 31.216849 -0.680121
2005-12-08 07:39:02 51°14.724 2°54.708 -999 3.281776 31.17464 -0.680121
2005-12-08 07:39:07 51°14.74 2°54.692 -999 3.283846 31.186635 -0.680121
2005-12-08 07:39:12 51°14.755 2°54.677 -999 3.286226 31.200259 -0.680121
2005-12-08 07:39:17 51°14.772 2°54.663 -999 3.295333 31.278916 -0.680121
2005-12-08 07:39:22 51°14.787 2°54.649 -999 3.295333 31.278916 -0.680121
2005-12-08 07:39:27 51°14.804 2°54.636 -999 3.303302 31.336554 -0.71383
2005-12-08 07:39:32 51°14.82 2°54.623 -999 3.336526 31.65306 -0.71383
2005-12-08 07:39:37 51°14.837 2°54.61 -999 3.351741 31.782488 -0.71383
2005-12-08 07:39:42 51°14.853 2°54.597 -999 3.363644 31.881114 -0.71383
2005-12-08 07:39:46 51°14.866 2°54.587 -999 3.394698 32.178475 -0.71383
2005-12-08 07:39:52 51°14.886 2°54.572 -999 3.407845 32.290755 -0.71383
2005-12-08 07:39:57 51°14.903 2°54.56 -999 3.407845 32.290755 -0.71383
2005-12-08 07:40:02 51°14.92 2°54.549 -999 3.418507 32.377662 -0.71383
2005-12-08 07:40:07 51°14.938 2°54.539 -999 3.432172 32.496886 -0.71383
2005-12-08 07:40:12 51°14.955 2°54.528 -999 3.438591 32.549158 -0.74754
2005-12-08 07:40:17 51°14.972 2°54.518 -999 3.445217 32.600199 -0.74754
2005-12-08 07:40:22 51°14.99 2°54.509 -999 3.445217 32.600199 -0.74754
2005-12-08 07:40:27 51°15.007 2°54.5 -999 3.453913 32.67549 -0.74754
2005-12-08 07:40:31 51°15.021 2°54.492 -999 3.461988 32.745915 -0.74754
2005-12-08 07:40:37 51°15.042 2°54.48 -999 3.461988 32.733204 -0.74754
2005-12-08 07:40:42 51°15.06 2°54.47 -999 3.468511 32.793212 -0.74754
2005-12-08 07:40:46 51°15.074 2°54.462 -999 3.476379 32.864793 -0.74754
2005-12-08 07:40:52 51°15.095 2°54.451 -999 3.476379 32.864793 -0.74754
2005-12-08 07:40:57 51°15.112 2°54.441 -999 3.477622 32.868488 -0.74754
2005-12-08 07:41:02 51°15.13 2°54.431 -999 3.470477 32.783337 -0.74754
2005-12-08 07:41:07 51°15.147 2°54.421 -999 3.488493 32.965593 -0.74754
2005-12-08 07:41:12 51°15.165 2°54.411 -999 3.489839 32.972906 -0.781249
2005-12-08 07:41:17 51°15.182 2°54.401 -999 3.491703 32.988207 -0.74754
2005-12-08 07:41:22 51°15.199 2°54.39 -999 3.489735 32.962453 -0.74754
2005-12-08 07:41:27 51°15.217 2°54.379 -999 3.489735 32.962453 -0.74754
2005-12-08 07:41:32 51°15.234 2°54.368 -999 3.496051 33.023614 -0.74754
2005-12-08 07:41:37 51°15.251 2°54.357 -999 3.495326 33.011747 -0.74754
2005-12-08 07:41:42 51°15.268 2°54.345 -999 3.499364 33.050705 -0.74754
2005-12-08 07:41:47 51°15.285 2°54.333 -999 3.495533 33.008806 -0.74754
2005-12-08 07:41:52 51°15.302 2°54.322 -999 3.495533 33.008806 -0.74754
2005-12-08 07:41:57 51°15.319 2°54.31 -999 3.502885 33.085085 -0.74754
2005-12-08 07:42:02 51°15.337 2°54.299 -999 3.494601 32.998179 -0.74754
2005-12-08 07:42:06 51°15.35 2°54.29 -999 3.496051 33.014237 -0.74754
2005-12-08 07:42:12 51°15.371 2°54.277 -999 3.502264 33.080274 -0.74754
2005-12-08 07:42:17 51°15.388 2°54.266 -999 3.502781 33.087415 -0.74754
2005-12-08 07:42:22 51°15.406 2°54.254 -999 3.502781 33.087415 -0.74754
2005-12-08 07:42:26 51°15.419 2°54.245 -999 3.499468 33.054352 -0.74754
2005-12-08 07:42:32 51°15.44 2°54.232 -999 3.49719 33.033008 -0.74754
2005-12-08 07:42:37 51°15.457 2°54.22 -999 3.499364 33.05924 -0.74754
2005-12-08 07:42:42 51°15.474 2°54.209 -999 3.492634 32.992021 -0.74754
2005-12-08 07:42:47 51°15.492 2°54.198 -999 3.492013 32.990614 -0.74754
2005-12-08 07:42:52 51°15.509 2°54.187 -999 3.492013 32.990614 -0.74754
2005-12-08 07:42:57 51°15.526 2°54.176 -999 3.486008 32.929299 -0.74754
2005-12-08 07:43:02 51°15.544 2°54.165 -999 3.490874 32.984626 -0.74754
2005-12-08 07:43:07 51°15.561 2°54.154 -999 3.490149 32.978722 -0.74754
2005-12-08 07:43:12 51°15.579 2°54.143 -999 3.486526 32.943241 -0.74754
2005-12-08 07:43:17 51°15.596 2°54.132 -999 3.484351 32.922123 -0.74754
2005-12-08 07:43:22 51°15.613 2°54.121 -999 3.486422 32.946411 -0.71383
2005-12-08 07:43:27 51°15.631 2°54.11 -999 3.486422 32.946411 -0.71383
2005-12-08 07:43:32 51°15.648 2°54.099 -999 3.483316 32.915509 -0.71383
2005-12-08 07:43:37 51°15.666 2°54.088 -999 3.48342 32.919148 -0.74754
2005-12-08 07:43:42 51°15.684 2°54.077 -999 3.489425 32.98475 -0.74754
2005-12-08 07:43:47 51°15.701 2°54.066 -999 3.487147 32.962537 -0.74754
2005-12-08 07:43:52 51°15.718 2°54.055 -999 3.487147 32.962537 -0.74754
2005-12-08 07:43:57 51°15.736 2°54.044 -999 3.486629 32.958805 -0.74754
2005-12-08 07:44:02 51°15.753 2°54.033 -999 3.49015 32.997479 -0.74754
2005-12-08 07:44:07 51°15.771 2°54.022 -999 3.487768 32.973322 -0.74754
2005-12-08 07:44:12 51°15.788 2°54.011 -999 3.483316 32.927423 -0.74754
2005-12-08 07:44:17 51°15.806 2°53.999 -999 3.483834 32.932858 -0.74754
2005-12-08 07:44:22 51°15.823 2°53.988 -999 3.483834 32.932858 -0.74754
2005-12-08 07:44:27 51°15.84 2°53.977 -999 3.490357 33.00136 -0.74754
2005-12-08 07:44:32 51°15.858 2°53.966 -999 3.48166 32.910029 -0.74754
2005-12-08 07:44:37 51°15.876 2°53.955 -999 3.489321 32.990485 -0.74754
2005-12-08 07:44:42 51°15.893 2°53.944 -999 3.487458 32.971764 -0.74754
2005-12-08 07:44:47 51°15.911 2°53.933 -999 3.489114 32.989163 -0.74754
2005-12-08 07:44:52 51°15.928 2°53.922 -999 3.489529 32.993513 -0.74754
2005-12-08 07:44:57 51°15.946 2°53.911 -999 3.489529 32.993513 -0.74754
2005-12-08 07:45:02 51°15.963 2°53.9 -999 3.488182 32.978524 -0.74754
2005-12-08 07:45:07 51°15.981 2°53.889 -999 3.47493 32.838533 -0.74754
2005-12-08 07:45:12 51°15.999 2°53.878 -999 3.493049 33.027929 -0.74754
2005-12-08 07:45:17 51°16.016 2°53.867 -999 3.494498 33.042301 -0.74754
2005-12-08 07:45:22 51°16.034 2°53.856 -999 3.494498 33.042301 -0.74754
2005-12-08 07:45:26 51°16.048 2°53.848 -999 3.491599 33.010996 -0.74754
2005-12-08 07:45:32 51°16.069 2°53.834 -999 3.494291 33.036709 -0.74754
2005-12-08 07:45:37 51°16.086 2°53.823 -999 3.489632 32.986072 -0.74754
2005-12-08 07:45:42 51°16.104 2°53.812 -999 3.485801 32.944146 -0.74754
2005-12-08 07:45:47 51°16.121 2°53.801 -999 3.489218 32.977461 -0.74754
2005-12-08 07:45:52 51°16.139 2°53.789 -999 3.489218 32.977461 -0.74754
2005-12-08 07:45:57 51°16.156 2°53.778 -999 3.493566 33.020562 -0.74754
2005-12-08 07:46:02 51°16.174 2°53.767 -999 3.494809 33.031047 -0.74754
2005-12-08 07:46:07 51°16.191 2°53.757 -999 3.501539 33.097447 -0.74754
2005-12-08 07:46:12 51°16.209 2°53.746 -999 3.500504 33.08401 -0.71383
2005-12-08 07:46:17 51°16.226 2°53.735 -999 3.501642 33.091695 -0.71383
2005-12-08 07:46:22 51°16.244 2°53.725 -999 3.501642 33.091695 -0.71383
2005-12-08 07:46:27 51°16.262 2°53.714 -999 3.510133 33.176572 -0.71383
2005-12-08 07:46:32 51°16.279 2°53.704 -999 3.512514 33.197297 -0.71383
2005-12-08 07:46:37 51°16.296 2°53.693 -999 3.493152 32.990638 -0.71383
2005-12-08 07:46:42 51°16.314 2°53.682 -999 3.513239 33.197194 -0.71383
2005-12-08 07:46:47 51°16.332 2°53.671 -999 3.516656 33.229642 -0.71383
2005-12-08 07:46:52 51°16.349 2°53.66 -999 3.517692 33.237941 -0.71383
2005-12-08 07:46:57 51°16.367 2°53.649 -999 3.517692 33.237941 -0.71383
2005-12-08 07:47:02 51°16.384 2°53.639 -999 3.52525 33.313882 -0.71383
2005-12-08 07:47:07 51°16.402 2°53.628 -999 3.528253 33.34456 -0.680121
2005-12-08 07:47:12 51°16.419 2°53.617 -999 3.527425 33.334999 -0.680121
2005-12-08 07:47:17 51°16.437 2°53.606 -999 3.532085 33.383944 -0.680121
2005-12-08 07:47:22 51°16.454 2°53.595 -999 3.532085 33.383944 -0.680121
2005-12-08 07:47:27 51°16.472 2°53.584 -999 3.528357 33.343927 -0.680121
2005-12-08 07:47:31 51°16.486 2°53.575 -999 3.531153 33.372432 -0.680121
2005-12-08 07:47:37 51°16.507 2°53.562 -999 3.528564 33.344381 -0.680121
2005-12-08 07:47:42 51°16.525 2°53.552 -999 3.537883 33.442279 -0.680121
2005-12-08 07:47:46 51°16.539 2°53.543 -999 3.538298 33.444904 -0.680121
2005-12-08 07:47:52 51°16.56 2°53.53 -999 3.538298 33.444904 -0.680121
2005-12-08 07:47:57 51°16.577 2°53.52 -999 3.537573 33.436426 -0.680121
2005-12-08 07:48:02 51°16.595 2°53.509 -999 3.536123 33.420333 -0.680121
2005-12-08 07:48:07 51°16.612 2°53.498 -999 3.528978 33.343568 -0.680121
2005-12-08 07:48:12 51°16.63 2°53.488 -999 3.539126 33.448429 -0.680121
2005-12-08 07:48:17 51°16.648 2°53.477 -999 3.538919 33.443664 -0.71383
2005-12-08 07:48:22 51°16.665 2°53.466 -999 3.538919 33.443664 -0.71383
2005-12-08 07:48:27 51°16.683 2°53.456 -999 3.543268 33.48849 -0.680121
2005-12-08 07:48:32 51°16.7 2°53.445 -999 3.545753 33.512008 -0.71383
2005-12-08 07:48:37 51°16.718 2°53.435 -999 3.546582 33.517253 -0.680121
2005-12-08 07:48:42 51°16.736 2°53.424 -999 3.547514 33.52445 -0.71383
2005-12-08 07:48:46 51°16.75 2°53.417 -999 3.545132 33.495975 -0.71383
2005-12-08 07:48:52 51°16.772 2°53.405 -999 3.545132 33.495975 -0.71383
2005-12-08 07:48:57 51°16.79 2°53.397 -999 3.539333 33.432489 -0.71383
2005-12-08 07:49:02 51°16.808 2°53.388 -999 3.55528 33.596522 -0.680121
2005-12-08 07:49:06 51°16.822 2°53.381 -999 3.557455 33.615036 -0.680121
2005-12-08 07:49:12 51°16.844 2°53.371 -999 3.555383 33.588948 -0.680121
2005-12-08 07:49:17 51°16.862 2°53.362 -999 3.560147 33.633784 -0.680121
2005-12-08 07:49:22 51°16.88 2°53.353 -999 3.560147 33.633784 -0.680121
2005-12-08 07:49:27 51°16.897 2°53.344 -999 3.560147 33.627717 -0.71383
2005-12-08 07:49:32 51°16.915 2°53.336 -999 3.563668 33.658625 -0.71383
2005-12-08 07:49:37 51°16.932 2°53.327 -999 3.561596 33.63081 -0.680121
2005-12-08 07:49:42 51°16.95 2°53.319 -999 3.567706 33.689758 -0.680121
2005-12-08 07:49:47 51°16.968 2°53.31 -999 3.560664 33.608905 -0.680121
2005-12-08 07:49:52 51°16.985 2°53.302 -999 3.560664 33.608905 -0.680121
2005-12-08 07:49:57 51°17.003 2°53.294 -999 3.562425 33.620456 -0.680121
2005-12-08 07:50:02 51°17.021 2°53.287 -999 3.558075 33.567045 -0.71383
2005-12-08 07:50:07 51°17.039 2°53.282 -999 3.570916 33.693964 -0.680121
2005-12-08 07:50:12 51°17.058 2°53.277 -999 3.572262 33.700285 -0.680121
2005-12-08 07:50:17 51°17.076 2°53.273 -999 3.570916 33.6775 -0.680121
2005-12-08 07:50:22 51°17.095 2°53.27 -999 3.579511 33.75724 -0.680121
2005-12-08 07:50:27 51°17.114 2°53.266 -999 3.579511 33.75724 -0.680121
2005-12-08 07:50:32 51°17.133 2°53.264 -999 3.581893 33.772671 -0.680121
2005-12-08 07:50:37 51°17.152 2°53.262 -999 3.582411 33.767686 -0.680121
2005-12-08 07:50:41 51°17.167 2°53.261 -999 3.579925 33.7321 -0.680121
2005-12-08 07:50:47 51°17.19 2°53.259 -999 3.585103 33.778557 -0.680121
2005-12-08 07:50:52 51°17.209 2°53.259 -999 3.585103 33.778557 -0.680121
2005-12-08 07:50:57 51°17.228 2°53.258 -999 3.588935 33.810031 -0.680121
2005-12-08 07:51:01 51°17.243 2°53.258 -999 3.589349 33.806561 -0.680121
2005-12-08 07:51:07 51°17.266 2°53.258 -999 3.594527 33.85386 -0.680121
2005-12-08 07:51:12 51°17.285 2°53.257 -999 3.599291 33.897682 -0.680121
2005-12-08 07:51:17 51°17.304 2°53.256 -999 3.601776 33.917631 -0.680121
2005-12-08 07:51:22 51°17.323 2°53.256 -999 3.601776 33.917631 -0.680121
2005-12-08 07:51:27 51°17.342 2°53.256 -999 3.597116 33.862738 -0.680121
2005-12-08 07:51:32 51°17.361 2°53.254 -999 3.601673 33.903502 -0.680121
2005-12-08 07:51:37 51°17.38 2°53.254 -999 3.604469 33.926695 -0.680121
2005-12-08 07:51:42 51°17.399 2°53.254 -999 3.604469 33.91887 -0.680121
2005-12-08 07:51:47 51°17.418 2°53.255 -999 3.605297 33.922328 -0.680121
2005-12-08 07:51:52 51°17.437 2°53.257 -999 3.605297 33.922328 -0.680121
2005-12-08 07:51:57 51°17.456 2°53.26 -999 3.60799 33.944425 -0.680121
2005-12-08 07:52:02 51°17.475 2°53.263 -999 3.614307 34.005329 -0.680121
2005-12-08 07:52:07 51°17.494 2°53.267 -999 3.61555 34.01224 -0.680121
2005-12-08 07:52:12 51°17.513 2°53.271 -999 3.60685 33.914258 -0.680121
2005-12-08 07:52:17 51°17.531 2°53.277 -999 3.609129 33.932879 -0.680121
2005-12-08 07:52:22 51°17.55 2°53.284 -999 3.618657 34.027333 -0.680121
2005-12-08 07:52:27 51°17.568 2°53.291 -999 3.618657 34.027333 -0.680121
2005-12-08 07:52:32 51°17.586 2°53.3 -999 3.618968 34.024488 -0.680121
2005-12-08 07:52:37 51°17.605 2°53.308 -999 3.618864 34.019052 -0.680121
2005-12-08 07:52:42 51°17.623 2°53.317 -999 3.618035 34.005166 -0.680121
2005-12-08 07:52:47 51°17.641 2°53.327 -999 3.623214 34.054967 -0.646411
2005-12-08 07:52:52 51°17.659 2°53.337 -999 3.623214 34.054967 -0.646411
2005-12-08 07:52:57 51°17.676 2°53.349 -999 3.621557 34.034156 -0.680121
2005-12-08 07:53:02 51°17.694 2°53.36 -999 3.620107 34.017255 -0.680121
2005-12-08 07:53:07 51°17.712 2°53.372 -999 3.623939 34.05471 -0.680121
2005-12-08 07:53:12 51°17.729 2°53.384 -999 3.624871 34.061843 -0.680121
2005-12-08 07:53:16 51°17.742 2°53.395 -999 3.625699 34.067893 -0.680121
2005-12-08 07:53:22 51°17.763 2°53.411 -999 3.625699 34.067893 -0.680121
2005-12-08 07:53:27 51°17.779 2°53.426 -999 3.61876 33.993616 -0.680121
2005-12-08 07:53:32 51°17.795 2°53.442 -999 3.623524 34.040803 -0.680121
2005-12-08 07:53:37 51°17.812 2°53.457 -999 3.62311 34.035602 -0.680121
2005-12-08 07:53:42 51°17.828 2°53.473 -999 3.624767 34.052924 -0.680121
2005-12-08 07:53:46 51°17.84 2°53.486 -999 3.625078 34.056172 -0.680121
2005-12-08 07:53:52 51°17.86 2°53.506 -999 3.625078 34.055301 -0.680121
2005-12-08 07:53:57 51°17.876 2°53.521 -999 3.625078 34.055301 -0.680121
2005-12-08 07:54:02 51°17.892 2°53.537 -999 3.622074 34.024777 -0.646411
2005-12-08 07:54:07 51°17.908 2°53.553 -999 3.628082 34.089313 -0.680121
2005-12-08 07:54:12 51°17.924 2°53.569 -999 3.625699 34.06528 -0.646411
2005-12-08 07:54:17 51°17.94 2°53.585 -999 3.625285 34.06182 -0.646411
2005-12-08 07:54:22 51°17.956 2°53.6 -999 3.625285 34.06182 -0.646411
2005-12-08 07:54:26 51°17.969 2°53.613 -999 3.623835 34.048403 -0.646411
2005-12-08 07:54:32 51°17.989 2°53.631 -999 3.623007 34.041482 -0.680121
2005-12-08 07:54:37 51°18.005 2°53.648 -999 3.627564 34.090872 -0.646411
2005-12-08 07:54:42 51°18.021 2°53.663 -999 3.622696 34.041715 -0.646411
2005-12-08 07:54:47 51°18.037 2°53.679 -999 3.625078 34.067493 -0.646411
2005-12-08 07:54:52 51°18.053 2°53.695 -999 3.625078 34.067493 -0.646411
2005-12-08 07:54:57 51°18.069 2°53.713 -999 3.622075 34.036959 -0.646411
2005-12-08 07:55:02 51°18.084 2°53.73 -999 3.624664 34.064904 -0.646411
2005-12-08 07:55:07 51°18.099 2°53.749 -999 3.624042 34.058406 -0.646411
2005-12-08 07:55:12 51°18.114 2°53.767 -999 3.624975 34.068153 -0.646411
2005-12-08 07:55:17 51°18.128 2°53.787 -999 3.622696 34.044327 -0.646411
2005-12-08 07:55:22 51°18.143 2°53.806 -999 3.622696 34.044327 -0.646411
2005-12-08 07:55:27 51°18.157 2°53.826 -999 3.624871 34.067941 -0.646411
2005-12-08 07:55:32 51°18.172 2°53.845 -999 3.622696 34.045197 -0.646411
2005-12-08 07:55:37 51°18.185 2°53.866 -999 3.62166 34.033498 -0.646411
2005-12-08 07:55:42 51°18.2 2°53.885 -999 3.625803 34.076817 -0.646411
2005-12-08 07:55:47 51°18.215 2°53.906 -999 3.624767 34.065987 -0.646411
2005-12-08 07:55:52 51°18.229 2°53.925 -999 3.612132 33.933894 -0.646411
2005-12-08 07:55:57 51°18.243 2°53.945 -999 3.612132 33.933894 -0.646411
2005-12-08 07:56:02 51°18.258 2°53.964 -999 3.626425 34.083316 -0.646411
2005-12-08 07:56:07 51°18.272 2°53.984 -999 3.62891 34.109313 -0.646411
2005-12-08 07:56:12 51°18.287 2°54.003 -999 3.627875 34.09848 -0.646411
2005-12-08 07:56:17 51°18.301 2°54.024 -999 3.630567 34.1249 -0.646411
2005-12-08 07:56:22 51°18.315 2°54.042 -999 3.630567 34.1249 -0.646411
2005-12-08 07:56:27 51°18.329 2°54.063 -999 3.62311 34.046917 -0.646411
2005-12-08 07:56:32 51°18.344 2°54.082 -999 3.626424 34.081573 -0.646411
2005-12-08 07:56:37 51°18.359 2°54.102 -999 3.628082 34.098031 -0.646411
2005-12-08 07:56:42 51°18.373 2°54.12 -999 3.627771 34.093038 -0.646411
2005-12-08 07:56:47 51°18.388 2°54.14 -999 3.629946 34.114911 -0.612702
2005-12-08 07:56:52 51°18.402 2°54.16 -999 3.629946 34.114911 -0.612702
2005-12-08 07:56:56 51°18.414 2°54.176 -999 3.630153 34.117077 -0.646411
2005-12-08 07:57:02 51°18.431 2°54.199 -999 3.630257 34.119033 -0.646411
2005-12-08 07:57:07 51°18.446 2°54.218 -999 3.630049 34.115122 -0.646411
2005-12-08 07:57:12 51°18.461 2°54.237 -999 3.631085 34.125953 -0.646411
2005-12-08 07:57:17 51°18.475 2°54.257 -999 3.632121 34.136785 -0.646411
2005-12-08 07:57:22 51°18.49 2°54.276 -999 3.632121 34.136785 -0.646411
2005-12-08 07:57:27 51°18.505 2°54.296 -999 3.632846 34.145241 -0.646411
2005-12-08 07:57:32 51°18.519 2°54.314 -999 3.628599 34.099958 -0.646411
2005-12-08 07:57:37 51°18.534 2°54.334 -999 3.635124 34.168201 -0.646411
2005-12-08 07:57:42 51°18.549 2°54.353 -999 3.629117 34.104502 -0.612702
2005-12-08 07:57:46 51°18.56 2°54.369 -999 3.635124 34.167327 -0.646411
2005-12-08 07:57:52 51°18.578 2°54.392 -999 3.635124 34.167327 -0.646411
2005-12-08 07:57:57 51°18.592 2°54.411 -999 3.634192 34.156704 -0.612702
2005-12-08 07:58:02 51°18.606 2°54.43 -999 3.637196 34.188121 -0.612702
2005-12-08 07:58:06 51°18.618 2°54.446 -999 3.634814 34.163203 -0.612702
2005-12-08 07:58:12 51°18.636 2°54.468 -999 3.638232 34.198081 -0.612702
2005-12-08 07:58:17 51°18.651 2°54.488 -999 3.638853 34.203707 -0.612702
2005-12-08 07:58:22 51°18.665 2°54.507 -999 3.638853 34.203707 -0.612702
2005-12-08 07:58:27 51°18.68 2°54.526 -999 3.638439 34.198499 -0.612702
2005-12-08 07:58:32 51°18.695 2°54.545 -999 3.639164 34.206083 -0.612702
2005-12-08 07:58:37 51°18.709 2°54.564 -999 3.6402 34.217792 -0.612702
2005-12-08 07:58:42 51°18.724 2°54.584 -999 3.638646 34.20154 -0.612702
2005-12-08 07:58:47 51°18.739 2°54.603 -999 3.637921 34.19483 -0.612702
2005-12-08 07:58:52 51°18.753 2°54.622 -999 3.637921 34.19483 -0.612702
2005-12-08 07:58:57 51°18.768 2°54.641 -999 3.641857 34.235129 -0.612702
2005-12-08 07:59:02 51°18.782 2°54.66 -999 3.63326 34.146954 -0.612702
2005-12-08 07:59:07 51°18.797 2°54.678 -999 3.632846 34.142622 -0.612702
2005-12-08 07:59:12 51°18.812 2°54.697 -999 3.644653 34.267017 -0.612702
2005-12-08 07:59:17 51°18.826 2°54.715 -999 3.641235 34.231253 -0.612702
2005-12-08 07:59:22 51°18.841 2°54.734 -999 3.645171 34.27156 -0.612702
2005-12-08 07:59:27 51°18.855 2°54.753 -999 3.645171 34.27156 -0.612702
2005-12-08 07:59:32 51°18.87 2°54.772 -999 3.639889 34.216291 -0.612702
2005-12-08 07:59:37 51°18.884 2°54.791 -999 3.645689 34.276979 -0.612702
2005-12-08 07:59:42 51°18.899 2°54.809 -999 3.642478 34.243382 -0.612702
2005-12-08 07:59:47 51°18.914 2°54.828 -999 3.645585 34.276771 -0.612702
2005-12-08 07:59:52 51°18.928 2°54.847 -999 3.645585 34.276771 -0.612702
2005-12-08 07:59:57 51°18.943 2°54.867 -999 3.649107 34.315381 -0.612702
2005-12-08 08:00:02 51°18.957 2°54.885 -999 3.646621 34.291118 -0.612702
2005-12-08 08:00:07 51°18.972 2°54.904 -999 3.650661 34.335156 -0.612702
2005-12-08 08:00:12 51°18.987 2°54.922 -999 3.649107 34.320647 -0.612702
2005-12-08 08:00:17 51°19.001 2°54.941 -999 3.650246 34.332575 -0.578993
2005-12-08 08:00:22 51°19.016 2°54.959 -999 3.650246 34.332575 -0.578993
2005-12-08 08:00:27 51°19.03 2°54.979 -999 3.639475 34.221583 -0.578993
2005-12-08 08:00:32 51°19.046 2°54.997 -999 3.644964 34.282541 -0.578993
2005-12-08 08:00:37 51°19.06 2°55.016 -999 3.649625 34.334851 -0.578993
2005-12-08 08:00:42 51°19.074 2°55.034 -999 3.649004 34.330978 -0.578993
2005-12-08 08:00:46 51°19.086 2°55.05 -999 3.647657 34.320391 -0.578993
2005-12-08 08:00:52 51°19.103 2°55.072 -999 3.647657 34.320391 -0.578993
2005-12-08 08:00:57 51°19.118 2°55.091 -999 3.643929 34.285733 -0.578993
2005-12-08 08:01:02 51°19.132 2°55.11 -999 3.638543 34.231967 -0.578993
2005-12-08 08:01:07 51°19.147 2°55.128 -999 3.64165 34.266257 -0.578993
2005-12-08 08:01:12 51°19.161 2°55.148 -999 3.642893 34.282783 -0.578993
2005-12-08 08:01:17 51°19.176 2°55.165 -999 3.642997 34.288257 -0.578993
2005-12-08 08:01:22 51°19.19 2°55.185 -999 3.640304 34.263558 -0.578993
2005-12-08 08:01:27 51°19.205 2°55.202 -999 3.640304 34.263558 -0.578993
2005-12-08 08:01:32 51°19.219 2°55.222 -999 3.647554 34.340397 -0.578993
2005-12-08 08:01:37 51°19.234 2°55.24 -999 3.647036 34.337609 -0.578993
2005-12-08 08:01:42 51°19.248 2°55.259 -999 3.642479 34.294247 -0.578993
2005-12-08 08:01:47 51°19.262 2°55.277 -999 3.647761 34.352245 -0.578993
2005-12-08 08:01:52 51°19.277 2°55.296 -999 3.647761 34.352245 -0.578993
2005-12-08 08:01:57 51°19.291 2°55.314 -999 3.646622 34.342062 -0.578993
2005-12-08 08:02:02 51°19.306 2°55.332 -999 3.644447 34.321901 -0.578993
2005-12-08 08:02:07 51°19.32 2°55.352 -999 3.641547 34.294141 -0.578993
2005-12-08 08:02:12 51°19.335 2°55.37 -999 3.64134 34.294606 -0.578993
2005-12-08 08:02:17 51°19.349 2°55.388 -999 3.633157 34.209731 -0.578993
2005-12-08 08:02:22 51°19.363 2°55.407 -999 3.633157 34.209731 -0.578993
2005-12-08 08:02:26 51°19.375 2°55.422 -999 3.646104 34.348952 -0.578993
2005-12-08 08:02:32 51°19.393 2°55.444 -999 3.636472 34.251484 -0.578993
2005-12-08 08:02:37 51°19.407 2°55.463 -999 3.645379 34.347512 -0.578993
2005-12-08 08:02:42 51°19.422 2°55.481 -999 3.644551 34.341463 -0.578993
2005-12-08 08:02:46 51°19.433 2°55.496 -999 3.644965 34.347569 -0.578993
2005-12-08 08:02:52 51°19.451 2°55.518 -999 3.646622 34.367594 -0.578993
2005-12-08 08:02:57 51°19.465 2°55.537 -999 3.646622 34.367594 -0.578993
2005-12-08 08:03:01 51°19.477 2°55.551 -999 3.644447 34.347421 -0.578993
2005-12-08 08:03:07 51°19.494 2°55.574 -999 3.645587 34.362015 -0.578993
2005-12-08 08:03:12 51°19.509 2°55.592 -999 3.644965 34.357258 -0.578993
2005-12-08 08:03:17 51°19.524 2°55.61 -999 3.642272 34.332529 -0.578993
2005-12-08 08:03:22 51°19.538 2°55.628 -999 3.642272 34.332529 -0.578993
2005-12-08 08:03:27 51°19.553 2°55.647 -999 3.63554 34.263667 -0.578993
2005-12-08 08:03:32 51°19.567 2°55.665 -999 3.645794 34.373884 -0.578993
2005-12-08 08:03:37 51°19.582 2°55.683 -999 3.640304 34.318925 -0.578993
2005-12-08 08:03:42 51°19.596 2°55.701 -999 3.642583 34.345478 -0.578993
2005-12-08 08:03:47 51°19.611 2°55.72 -999 3.64393 34.36049 -0.545283
2005-12-08 08:03:52 51°19.626 2°55.737 -999 3.64393 34.36049 -0.545283
2005-12-08 08:03:57 51°19.64 2°55.756 -999 3.639372 34.315306 -0.578993
2005-12-08 08:04:02 51°19.655 2°55.774 -999 3.641754 34.341187 -0.578993
2005-12-08 08:04:07 51°19.669 2°55.793 -999 3.644344 34.371011 -0.545283
2005-12-08 08:04:12 51°19.684 2°55.81 -999 3.635022 34.274938 -0.545283
2005-12-08 08:04:17 51°19.698 2°55.829 -999 3.643722 34.368015 -0.578993
2005-12-08 08:04:22 51°19.713 2°55.847 -999 3.638026 34.308219 -0.545283
2005-12-08 08:04:27 51°19.728 2°55.865 -999 3.638026 34.308219 -0.545283
2005-12-08 08:04:32 51°19.742 2°55.883 -999 3.639165 34.321939 -0.578993
2005-12-08 08:04:37 51°19.756 2°55.902 -999 3.642065 34.352381 -0.578993
2005-12-08 08:04:42 51°19.771 2°55.92 -999 3.642376 34.356525 -0.578993
2005-12-08 08:04:47 51°19.785 2°55.938 -999 3.64134 34.347415 -0.545283
2005-12-08 08:04:52 51°19.8 2°55.957 -999 3.636472 34.296315 -0.545283
2005-12-08 08:04:57 51°19.814 2°55.976 -999 3.636472 34.296315 -0.545283
2005-12-08 08:05:02 51°19.829 2°55.994 -999 3.633779 34.268931 -0.545283
2005-12-08 08:05:07 51°19.844 2°56.012 -999 3.628187 34.212875 -0.545283
2005-12-08 08:05:12 51°19.858 2°56.03 -999 3.633572 34.272035 -0.545283
2005-12-08 08:05:17 51°19.873 2°56.048 -999 3.634297 34.282286 -0.545283
2005-12-08 08:05:22 51°19.887 2°56.066 -999 3.634297 34.282286 -0.545283
2005-12-08 08:05:26 51°19.899 2°56.08 -999 3.633055 34.272758 -0.545283
2005-12-08 08:05:32 51°19.916 2°56.102 -999 3.627669 34.221496 -0.545283
2005-12-08 08:05:37 51°19.93 2°56.12 -999 3.626737 34.216983 -0.511574
2005-12-08 08:05:42 51°19.944 2°56.139 -999 3.62684 34.224224 -0.511574
2005-12-08 08:05:47 51°19.959 2°56.156 -999 3.621869 34.179051 -0.511574
2005-12-08 08:05:52 51°19.973 2°56.175 -999 3.621869 34.179051 -0.511574
2005-12-08 08:05:57 51°19.988 2°56.193 -999 3.617416 34.138433 -0.511574
2005-12-08 08:06:02 51°20.001 2°56.212 -999 3.616484 34.136541 -0.511574
2005-12-08 08:06:07 51°20.016 2°56.23 -999 3.612859 34.108119 -0.511574
2005-12-08 08:06:12 51°20.03 2°56.249 -999 3.610581 34.099971 -0.477864
2005-12-08 08:06:17 51°20.044 2°56.267 -999 3.594839 33.952089 -0.477864
2005-12-08 08:06:22 51°20.058 2°56.288 -999 3.594114 33.960208 -0.477864
2005-12-08 08:06:27 51°20.072 2°56.306 -999 3.594114 33.960208 -0.477864
2005-12-08 08:06:32 51°20.086 2°56.325 -999 3.594529 33.983816 -0.477864
2005-12-08 08:06:37 51°20.1 2°56.344 -999 3.586037 33.910255 -0.477864
2005-12-08 08:06:42 51°20.114 2°56.363 -999 3.584898 33.914013 -0.444155
2005-12-08 08:06:47 51°20.128 2°56.382 -999 3.579409 33.868499 -0.444155
2005-12-08 08:06:52 51°20.142 2°56.401 -999 3.575992 33.846514 -0.444155
2005-12-08 08:06:57 51°20.156 2°56.421 -999 3.575992 33.846514 -0.444155
2005-12-08 08:07:02 51°20.17 2°56.439 -999 3.564393 33.738396 -0.444155
2005-12-08 08:07:06 51°20.181 2°56.455 -999 3.569779 33.80643 -0.444155
2005-12-08 08:07:12 51°20.197 2°56.477 -999 3.565533 33.772192 -0.444155
2005-12-08 08:07:17 51°20.211 2°56.496 -999 3.563772 33.764996 -0.444155
2005-12-08 08:07:22 51°20.225 2°56.516 -999 3.563772 33.764996 -0.444155
2005-12-08 08:07:27 51°20.239 2°56.534 -999 3.560666 33.741866 -0.444155
2005-12-08 08:07:32 51°20.253 2°56.554 -999 3.558284 33.727239 -0.444155
2005-12-08 08:07:37 51°20.267 2°56.572 -999 3.550414 33.655631 -0.444155
2005-12-08 08:07:42 51°20.281 2°56.592 -999 3.554971 33.717617 -0.410446
2005-12-08 08:07:47 51°20.295 2°56.61 -999 3.548551 33.66474 -0.444155
2005-12-08 08:07:52 51°20.309 2°56.63 -999 3.548551 33.66474 -0.444155
2005-12-08 08:07:57 51°20.323 2°56.649 -999 3.550208 33.69269 -0.410446
2005-12-08 08:08:02 51°20.337 2°56.668 -999 3.545444 33.654646 -0.410446
2005-12-08 08:08:06 51°20.348 2°56.682 -999 3.543477 33.648714 -0.410446
2005-12-08 08:08:12 51°20.365 2°56.706 -999 3.539439 33.618293 -0.410446
2005-12-08 08:08:17 51°20.379 2°56.725 -999 3.535504 33.588079 -0.410446
2005-12-08 08:08:22 51°20.393 2°56.744 -999 3.533433 33.580156 -0.410446
2005-12-08 08:08:27 51°20.407 2°56.763 -999 3.533433 33.580156 -0.410446
2005-12-08 08:08:32 51°20.421 2°56.782 -999 3.529188 33.546637 -0.410446
2005-12-08 08:08:37 51°20.435 2°56.801 -999 3.52867 33.552498 -0.410446
2005-12-08 08:08:41 51°20.446 2°56.816 -999 3.523079 33.502986 -0.376736
2005-12-08 08:08:47 51°20.463 2°56.839 -999 3.521836 33.501175 -0.376736
2005-12-08 08:08:52 51°20.477 2°56.858 -999 3.521836 33.501175 -0.376736
2005-12-08 08:08:57 51°20.491 2°56.877 -999 3.515106 33.441335 -0.376736
2005-12-08 08:09:02 51°20.505 2°56.897 -999 3.516866 33.471266 -0.376736
2005-12-08 08:09:07 51°20.519 2°56.915 -999 3.510964 33.420154 -0.376736
2005-12-08 08:09:12 51°20.532 2°56.935 -999 3.509825 33.418546 -0.376736
2005-12-08 08:09:17 51°20.547 2°56.953 -999 3.506305 33.389996 -0.376736
2005-12-08 08:09:22 51°20.561 2°56.973 -999 3.506305 33.389996 -0.376736
2005-12-08 08:09:27 51°20.575 2°56.991 -999 3.504648 33.383771 -0.376736
2005-12-08 08:09:32 51°20.589 2°57.01 -999 3.499989 33.345754 -0.376736
2005-12-08 08:09:37 51°20.603 2°57.03 -999 3.492431 33.279634 -0.343027
2005-12-08 08:09:41 51°20.614 2°57.045 -999 3.493984 33.307369 -0.343027
2005-12-08 08:09:47 51°20.63 2°57.068 -999 3.489842 33.273057 -0.343027
2005-12-08 08:09:52 51°20.645 2°57.086 -999 3.49181 33.305195 -0.343027
2005-12-08 08:09:57 51°20.659 2°57.106 -999 3.49181 33.305195 -0.343027
2005-12-08 08:10:02 51°20.673 2°57.124 -999 3.486737 33.262728 -0.343027
2005-12-08 08:10:07 51°20.687 2°57.144 -999 3.48508 33.2582 -0.309317
2005-12-08 08:10:12 51°20.701 2°57.162 -999 3.482388 33.234873 -0.343027
2005-12-08 08:10:17 51°20.715 2°57.182 -999 3.478972 33.209065 -0.343027
2005-12-08 08:10:22 51°20.729 2°57.2 -999 3.472035 33.146784 -0.343027
2005-12-08 08:10:27 51°20.743 2°57.22 -999 3.472035 33.146784 -0.343027
2005-12-08 08:10:32 51°20.758 2°57.239 -999 3.46458 33.07986 -0.343027
2005-12-08 08:10:37 51°20.772 2°57.258 -999 3.461889 33.058234 -0.343027
2005-12-08 08:10:42 51°20.786 2°57.276 -999 3.462406 33.074975 -0.343027
2005-12-08 08:10:47 51°20.799 2°57.296 -999 3.449672 32.950261 -0.343027
2005-12-08 08:10:52 51°20.814 2°57.315 -999 3.449672 32.950261 -0.343027
2005-12-08 08:10:57 51°20.827 2°57.335 -999 3.458783 33.053838 -0.343027
2005-12-08 08:11:02 51°20.842 2°57.353 -999 3.452364 32.994364 -0.343027
2005-12-08 08:11:07 51°20.855 2°57.373 -999 3.459611 33.07909 -0.343027
2005-12-08 08:11:12 51°20.87 2°57.391 -999 3.456402 33.048475 -0.343027
2005-12-08 08:11:17 51°20.883 2°57.411 -999 3.448637 32.972088 -0.343027
2005-12-08 08:11:22 51°20.898 2°57.43 -999 3.448637 32.972088 -0.343027
2005-12-08 08:11:27 51°20.912 2°57.449 -999 3.453399 33.024386 -0.343027
2005-12-08 08:11:32 51°20.926 2°57.468 -999 3.448534 32.977039 -0.343027
2005-12-08 08:11:37 51°20.94 2°57.487 -999 3.444289 32.938879 -0.343027
2005-12-08 08:11:42 51°20.954 2°57.506 -999 3.445531 32.958122 -0.343027
2005-12-08 08:11:46 51°20.966 2°57.521 -999 3.448741 32.994809 -0.343027
2005-12-08 08:11:52 51°20.982 2°57.545 -999 3.4446 32.954276 -0.343027
2005-12-08 08:11:57 51°20.997 2°57.564 -999 3.4446 32.954276 -0.343027
2005-12-08 08:12:02 51°21.011 2°57.583 -999 3.442943 32.94273 -0.343027
2005-12-08 08:12:07 51°21.025 2°57.601 -999 3.444186 32.960253 -0.343027
2005-12-08 08:12:12 51°21.039 2°57.621 -999 3.443357 32.954912 -0.343027
2005-12-08 08:12:17 51°21.054 2°57.64 -999 3.443979 32.964108 -0.343027
2005-12-08 08:12:22 51°21.067 2°57.659 -999 3.443979 32.964108 -0.343027
2005-12-08 08:12:27 51°21.081 2°57.678 -999 3.440148 32.926858 -0.343027
2005-12-08 08:12:32 51°21.096 2°57.697 -999 3.442219 32.952323 -0.343027
2005-12-08 08:12:37 51°21.11 2°57.717 -999 3.442633 32.95586 -0.343027
2005-12-08 08:12:42 51°21.125 2°57.736 -999 3.439941 32.92725 -0.343027
2005-12-08 08:12:47 51°21.138 2°57.755 -999 3.44108 32.942814 -0.343027
2005-12-08 08:12:52 51°21.153 2°57.774 -999 3.44108 32.942814 -0.343027
2005-12-08 08:12:57 51°21.167 2°57.794 -999 3.436732 32.898326 -0.343027
2005-12-08 08:13:02 51°21.182 2°57.813 -999 3.433419 32.864845 -0.343027
2005-12-08 08:13:06 51°21.193 2°57.829 -999 3.440873 32.944938 -0.376736
2005-12-08 08:13:12 51°21.21 2°57.852 -999 3.441494 32.951541 -0.343027
2005-12-08 08:13:17 51°21.224 2°57.872 -999 3.435075 32.885903 -0.376736
2005-12-08 08:13:22 51°21.238 2°57.891 -999 3.435075 32.885903 -0.376736
2005-12-08 08:13:27 51°21.252 2°57.911 -999 3.43549 32.892896 -0.343027
2005-12-08 08:13:32 51°21.266 2°57.93 -999 3.441908 32.962003 -0.343027
2005-12-08 08:13:37 51°21.28 2°57.949 -999 3.442115 32.965937 -0.376736
2005-12-08 08:13:42 51°21.294 2°57.968 -999 3.432384 32.865925 -0.376736
2005-12-08 08:13:47 51°21.308 2°57.988 -999 3.440148 32.95281 -0.376736
2005-12-08 08:13:52 51°21.323 2°58.007 -999 3.432694 32.875272 -0.376736
2005-12-08 08:13:57 51°21.337 2°58.027 -999 3.432694 32.875272 -0.376736
2005-12-08 08:14:02 51°21.351 2°58.046 -999 3.436525 32.916869 -0.376736
2005-12-08 08:14:06 51°21.362 2°58.062 -999 3.440149 32.95714 -0.376736
2005-12-08 08:14:12 51°21.379 2°58.085 -999 3.438803 32.944555 -0.376736
2005-12-08 08:14:17 51°21.393 2°58.104 -999 3.438803 32.946287 -0.376736
2005-12-08 08:14:22 51°21.408 2°58.123 -999 3.438803 32.946287 -0.376736
2005-12-08 08:14:26 51°21.419 2°58.139 -999 3.436629 32.924026 -0.376736
2005-12-08 08:14:32 51°21.436 2°58.162 -999 3.434144 32.898463 -0.376736
2005-12-08 08:14:37 51°21.45 2°58.182 -999 3.435904 32.918913 -0.376736
2005-12-08 08:14:42 51°21.465 2°58.201 -999 3.434247 32.901294 -0.376736
2005-12-08 08:14:47 51°21.478 2°58.222 -999 3.434455 32.903496 -0.376736
2005-12-08 08:14:52 51°21.492 2°58.241 -999 3.434455 32.903496 -0.376736
2005-12-08 08:14:57 51°21.505 2°58.262 -999 3.431866 32.876832 -0.376736
2005-12-08 08:15:02 51°21.519 2°58.283 -999 3.434455 32.904361 -0.376736
2005-12-08 08:15:07 51°21.532 2°58.304 -999 3.436732 32.928589 -0.376736
2005-12-08 08:15:12 51°21.546 2°58.324 -999 3.438389 32.947943 -0.376736
2005-12-08 08:15:17 51°21.559 2°58.346 -999 3.428036 32.838686 -0.376736
2005-12-08 08:15:22 51°21.572 2°58.366 -999 3.437975 32.944403 -0.376736
2005-12-08 08:15:27 51°21.585 2°58.388 -999 3.437975 32.944403 -0.376736
2005-12-08 08:15:32 51°21.599 2°58.409 -999 3.438285 32.948574 -0.376736
2005-12-08 08:15:37 51°21.612 2°58.429 -999 3.434144 32.906247 -0.376736
2005-12-08 08:15:42 51°21.626 2°58.45 -999 3.436318 32.931108 -0.376736
2005-12-08 08:15:47 51°21.639 2°58.471 -999 3.433316 32.900896 -0.376736
2005-12-08 08:15:52 51°21.652 2°58.492 -999 3.433316 32.900896 -0.376736
2005-12-08 08:15:57 51°21.665 2°58.514 -999 3.433212 32.901524 -0.376736
2005-12-08 08:16:02 51°21.679 2°58.534 -999 3.426276 32.829463 -0.376736
2005-12-08 08:16:07 51°21.692 2°58.556 -999 3.436836 32.944411 -0.376736
2005-12-08 08:16:12 51°21.706 2°58.576 -999 3.433419 32.908919 -0.376736
2005-12-08 08:16:17 51°21.718 2°58.598 -999 3.436836 32.946144 -0.376736
2005-12-08 08:16:22 51°21.732 2°58.619 -999 3.436836 32.946144 -0.376736
2005-12-08 08:16:27 51°21.745 2°58.64 -999 3.434972 32.927177 -0.376736
2005-12-08 08:16:32 51°21.758 2°58.661 -999 3.437147 32.95205 -0.376736
2005-12-08 08:16:37 51°21.772 2°58.683 -999 3.434144 32.92096 -0.376736
2005-12-08 08:16:42 51°21.785 2°58.704 -999 3.436111 32.943629 -0.376736
2005-12-08 08:16:46 51°21.795 2°58.721 -999 3.419444 32.768858 -0.376736
2005-12-08 08:16:52 51°21.811 2°58.746 -999 3.419444 32.768858 -0.376736
2005-12-08 08:16:57 51°21.825 2°58.767 -999 3.42669 32.849415 -0.376736
2005-12-08 08:17:02 51°21.838 2°58.788 -999 3.427622 32.861925 -0.376736
2005-12-08 08:17:07 51°21.851 2°58.81 -999 3.433523 32.926473 -0.376736
2005-12-08 08:17:12 51°21.865 2°58.831 -999 3.425345 32.841141 -0.376736
2005-12-08 08:17:17 51°21.878 2°58.853 -999 3.432591 32.920018 -0.376736
2005-12-08 08:17:22 51°21.891 2°58.874 -999 3.431556 32.911593 -0.376736
2005-12-08 08:17:27 51°21.904 2°58.896 -999 3.431556 32.911593 -0.376736
2005-12-08 08:17:32 51°21.918 2°58.917 -999 3.432074 32.917972 -0.376736
2005-12-08 08:17:36 51°21.928 2°58.935 -999 3.43197 32.919468 -0.376736
2005-12-08 08:17:42 51°21.944 2°58.959 -999 3.425345 32.851514 -0.376736
2005-12-08 08:17:47 51°21.957 2°58.981 -999 3.429589 32.900174 -0.376736
2005-12-08 08:17:52 51°21.971 2°59.002 -999 3.429589 32.900174 -0.376736
2005-12-08 08:17:57 51°21.984 2°59.023 -999 3.430003 32.905451 -0.376736
2005-12-08 08:18:02 51°21.997 2°59.045 -999 3.427622 32.880092 -0.376736
2005-12-08 08:18:06 51°22.008 2°59.061 -999 3.429796 32.905844 -0.376736
2005-12-08 08:18:12 51°22.024 2°59.088 -999 3.430935 32.920575 -0.376736
2005-12-08 08:18:17 51°22.038 2°59.108 -999 3.429175 32.90356 -0.376736
2005-12-08 08:18:22 51°22.051 2°59.13 -999 3.429175 32.90356 -0.376736
2005-12-08 08:18:27 51°22.064 2°59.151 -999 3.427208 32.884339 -0.376736
2005-12-08 08:18:32 51°22.078 2°59.172 -999 3.427933 32.894658 -0.376736
2005-12-08 08:18:37 51°22.091 2°59.193 -999 3.42638 32.880713 -0.376736
2005-12-08 08:18:42 51°22.104 2°59.214 -999 3.427105 32.890166 -0.376736
2005-12-08 08:18:46 51°22.115 2°59.232 -999 3.414164 32.754059 -0.376736
2005-12-08 08:18:52 51°22.131 2°59.257 -999 3.425552 32.877951 -0.376736
2005-12-08 08:18:57 51°22.144 2°59.278 -999 3.425552 32.877951 -0.376736
2005-12-08 08:19:02 51°22.157 2°59.299 -999 3.423275 32.856282 -0.376736
2005-12-08 08:19:06 51°22.168 2°59.316 -999 3.425449 32.880313 -0.376736
2005-12-08 08:19:12 51°22.185 2°59.341 -999 3.423378 32.859982 -0.376736
2005-12-08 08:19:17 51°22.198 2°59.363 -999 3.422964 32.857301 -0.376736
2005-12-08 08:19:22 51°22.212 2°59.384 -999 3.425242 32.883305 -0.376736
2005-12-08 08:19:27 51°22.225 2°59.405 -999 3.425242 32.883305 -0.376736
2005-12-08 08:19:32 51°22.238 2°59.427 -999 3.421411 32.845082 -0.376736
2005-12-08 08:19:37 51°22.251 2°59.448 -999 3.422136 32.856268 -0.376736
2005-12-08 08:19:42 51°22.264 2°59.47 -999 3.423792 32.876522 -0.376736
2005-12-08 08:19:47 51°22.278 2°59.49 -999 3.414372 32.777849 -0.376736
2005-12-08 08:19:52 51°22.29 2°59.512 -999 3.414372 32.777849 -0.376736
2005-12-08 08:19:57 51°22.304 2°59.533 -999 3.422136 32.863197 -0.376736
2005-12-08 08:20:02 51°22.317 2°59.554 -999 3.421722 32.861382 -0.376736
2005-12-08 08:20:07 51°22.331 2°59.575 -999 3.422654 32.873049 -0.376736
2005-12-08 08:20:12 51°22.344 2°59.596 -999 3.420169 32.848291 -0.376736
2005-12-08 08:20:17 51°22.357 2°59.617 -999 3.420169 32.849158 -0.376736
2005-12-08 08:20:22 51°22.37 2°59.639 -999 3.420169 32.849158 -0.376736
2005-12-08 08:20:27 51°22.384 2°59.659 -999 3.41696 32.81754 -0.376736
2005-12-08 08:20:32 51°22.397 2°59.681 -999 3.416856 32.818167 -0.376736
2005-12-08 08:20:37 51°22.41 2°59.702 -999 3.417995 32.832906 -0.376736
2005-12-08 08:20:42 51°22.423 2°59.723 -999 3.410542 32.755169 -0.376736
2005-12-08 08:20:47 51°22.437 2°59.743 -999 3.417892 32.836132 -0.376736
2005-12-08 08:20:52 51°22.45 2°59.764 -999 3.402053 32.669867 -0.376736
2005-12-08 08:20:57 51°22.463 2°59.786 -999 3.402053 32.669867 -0.376736
2005-12-08 08:21:02 51°22.477 2°59.807 -999 3.41344 32.79472 -0.376736
2005-12-08 08:21:06 51°22.488 2°59.823 -999 3.414579 32.809461 -0.376736
2005-12-08 08:21:12 51°22.503 2°59.849 -999 3.413647 32.802121 -0.376736
2005-12-08 08:21:17 51°22.518 2°59.87 -999 3.412923 32.796123 -0.376736
2005-12-08 08:21:22 51°22.531 2°59.891 -999 3.411991 32.788781 -0.376736
2005-12-08 08:21:27 51°22.545 2°59.912 -999 3.411991 32.788781 -0.376736
2005-12-08 08:21:32 51°22.558 2°59.933 -999 3.413855 32.812122 -0.376736
2005-12-08 08:21:37 51°22.572 2°59.955 -999 3.390563 32.566337 -0.376736
2005-12-08 08:21:42 51°22.585 2°59.976 -999 3.413855 32.815587 -0.376736
2005-12-08 08:21:47 51°22.598 2°59.997 -999 3.411784 32.796094 -0.376736
2005-12-08 08:21:52 51°22.611 3°0.019 -999 3.411784 32.796094 -0.376736
2005-12-08 08:21:57 51°22.625 3°0.04 -999 3.41313 32.81132 -0.376736
2005-12-08 08:22:02 51°22.638 3°0.061 -999 3.411163 32.791198 -0.376736
2005-12-08 08:22:07 51°22.652 3°0.082 -999 3.412509 32.80729 -0.376736
2005-12-08 08:22:12 51°22.665 3°0.104 -999 3.410853 32.793079 -0.376736
2005-12-08 08:22:17 51°22.679 3°0.125 -999 3.408886 32.774686 -0.376736
2005-12-08 08:22:22 51°22.692 3°0.146 -999 3.39843 32.665725 -0.376736
2005-12-08 08:22:26 51°22.702 3°0.163 -999 3.39843 32.665725 -0.376736
2005-12-08 08:22:32 51°22.719 3°0.189 -999 3.409196 32.783195 -0.376736
2005-12-08 08:22:37 51°22.732 3°0.21 -999 3.406712 32.76014 -0.376736
2005-12-08 08:22:42 51°22.746 3°0.232 -999 3.407126 32.767156 -0.376736
2005-12-08 08:22:47 51°22.759 3°0.253 -999 3.404124 32.737708 -0.376736
2005-12-08 08:22:52 51°22.772 3°0.275 -999 3.405677 32.757745 -0.376736
2005-12-08 08:22:57 51°22.785 3°0.295 -999 3.405677 32.757745 -0.376736
2005-12-08 08:23:02 51°22.799 3°0.317 -999 3.401018 32.711476 -0.376736
2005-12-08 08:23:07 51°22.812 3°0.338 -999 3.387872 32.573766 -0.376736
2005-12-08 08:23:12 51°22.826 3°0.359 -999 3.401329 32.71825 -0.376736
2005-12-08 08:23:17 51°22.839 3°0.38 -999 3.402364 32.731032 -0.376736
2005-12-08 08:23:22 51°22.852 3°0.401 -999 3.402364 32.731032 -0.376736
2005-12-08 08:23:26 51°22.863 3°0.419 -999 3.402778 32.736318 -0.376736
2005-12-08 08:23:33 51°22.882 3°0.448 -999 3.401847 32.728966 -0.376736
2005-12-08 08:23:37 51°22.892 3°0.465 -999 3.399776 32.708589 -0.376736
2005-12-08 08:23:42 51°22.905 3°0.487 -999 3.402675 32.743002 -0.376736
2005-12-08 08:23:47 51°22.919 3°0.508 -999 3.396567 32.680375 -0.376736
2005-12-08 08:23:52 51°22.932 3°0.529 -999 3.396567 32.680375 -0.376736
2005-12-08 08:23:57 51°22.945 3°0.55 -999 3.399259 32.710845 -0.376736
2005-12-08 08:24:02 51°22.959 3°0.571 -999 3.40019 32.722526 -0.376736
2005-12-08 08:24:07 51°22.972 3°0.593 -999 3.399052 32.712094 -0.376736
2005-12-08 08:24:12 51°22.986 3°0.614 -999 3.392427 32.644797 -0.376736
2005-12-08 08:24:17 51°22.999 3°0.635 -999 3.39781 32.704881 -0.376736
2005-12-08 08:24:22 51°23.013 3°0.656 -999 3.395325 32.680072 -0.376736
2005-12-08 08:24:27 51°23.026 3°0.678 -999 3.395325 32.680072 -0.376736
2005-12-08 08:24:32 51°23.039 3°0.699 -999 3.392634 32.653053 -0.376736
2005-12-08 08:24:37 51°23.052 3°0.72 -999 3.39812 32.714256 -0.376736
2005-12-08 08:24:42 51°23.066 3°0.742 -999 3.396671 32.701368 -0.376736
2005-12-08 08:24:47 51°23.079 3°0.763 -999 3.394601 32.681842 -0.376736
2005-12-08 08:24:52 51°23.092 3°0.785 -999 3.395325 32.69218 -0.410446
2005-12-08 08:24:57 51°23.106 3°0.806 -999 3.395325 32.69218 -0.410446
2005-12-08 08:25:02 51°23.119 3°0.827 -999 3.394808 32.689244 -0.376736
2005-12-08 08:25:07 51°23.132 3°0.848 -999 3.39398 32.68299 -0.376736
2005-12-08 08:25:12 51°23.146 3°0.869 -999 3.3887 32.627442 -0.376736
2005-12-08 08:25:17 51°23.16 3°0.89 -999 3.38694 32.61123 -0.376736
2005-12-08 08:25:22 51°23.174 3°0.91 -999 3.38694 32.61123 -0.376736
2005-12-08 08:25:27 51°23.188 3°0.931 -999 3.394497 32.693713 -0.376736
2005-12-08 08:25:32 51°23.202 3°0.951 -999 3.389425 32.641232 -0.376736
2005-12-08 08:25:37 51°23.216 3°0.972 -999 3.391495 32.665952 -0.376736
2005-12-08 08:25:42 51°23.23 3°0.992 -999 3.392116 32.675186 -0.410446
2005-12-08 08:25:47 51°23.244 3°1.012 -999 3.392324 32.67913 -0.410446
2005-12-08 08:25:52 51°23.258 3°1.033 -999 3.39222 32.679754 -0.376736
2005-12-08 08:25:57 51°23.271 3°1.053 -999 3.39222 32.679754 -0.376736
2005-12-08 08:26:02 51°23.285 3°1.074 -999 3.389011 32.646314 -0.410446
2005-12-08 08:26:07 51°23.299 3°1.094 -999 3.391806 32.677923 -0.410446
2005-12-08 08:26:12 51°23.313 3°1.114 -999 3.389322 32.651363 -0.410446
2005-12-08 08:26:17 51°23.327 3°1.135 -999 3.38839 32.643132 -0.376736
2005-12-08 08:26:22 51°23.341 3°1.155 -999 3.388908 32.65126 -0.410446
2005-12-08 08:26:27 51°23.355 3°1.176 -999 3.388908 32.65126 -0.410446
2005-12-08 08:26:32 51°23.368 3°1.197 -999 3.388079 32.645 -0.410446
2005-12-08 08:26:37 51°23.383 3°1.217 -999 3.387251 32.63874 -0.410446
2005-12-08 08:26:42 51°23.397 3°1.237 -999 3.384146 32.607265 -0.410446
2005-12-08 08:26:47 51°23.411 3°1.257 -999 3.388908 32.659046 -0.410446
2005-12-08 08:26:52 51°23.424 3°1.278 -999 3.388908 32.659046 -0.410446
2005-12-08 08:26:57 51°23.438 3°1.299 -999 3.389115 32.66299 -0.410446
2005-12-08 08:27:02 51°23.452 3°1.319 -999 3.386216 32.634588 -0.410446
2005-12-08 08:27:07 51°23.466 3°1.339 -999 3.38456 32.617741 -0.410446
2005-12-08 08:27:12 51°23.48 3°1.359 -999 3.387251 32.647389 -0.410446
2005-12-08 08:27:17 51°23.493 3°1.38 -999 3.383007 32.603729 -0.410446
2005-12-08 08:27:22 51°23.507 3°1.4 -999 3.383007 32.603729 -0.410446
2005-12-08 08:27:27 51°23.521 3°1.421 -999 3.38839 32.662164 -0.410446
2005-12-08 08:27:32 51°23.535 3°1.441 -999 3.387873 32.657493 -0.410446
2005-12-08 08:27:37 51°23.549 3°1.461 -999 3.381869 32.595008 -0.410446
2005-12-08 08:27:42 51°23.563 3°1.482 -999 3.384457 32.62355 -0.410446
2005-12-08 08:27:47 51°23.576 3°1.502 -999 3.387148 32.65407 -0.410446
2005-12-08 08:27:52 51°23.59 3°1.522 -999 3.38456 32.627251 -0.410446
2005-12-08 08:27:57 51°23.604 3°1.543 -999 3.38456 32.627251 -0.410446
2005-12-08 08:28:02 51°23.618 3°1.563 -999 3.38632 32.647807 -0.410446
2005-12-08 08:28:07 51°23.632 3°1.583 -999 3.385802 32.64227 -0.410446
2005-12-08 08:28:12 51°23.645 3°1.604 -999 3.388183 32.669474 -0.410446
2005-12-08 08:28:17 51°23.66 3°1.624 -999 3.384974 32.636871 -0.410446
2005-12-08 08:28:22 51°23.673 3°1.644 -999 3.38425 32.629984 -0.410446
2005-12-08 08:28:27 51°23.688 3°1.664 -999 3.38425 32.629984 -0.410446
2005-12-08 08:28:32 51°23.701 3°1.684 -999 3.384974 32.639467 -0.410446
2005-12-08 08:28:37 51°23.715 3°1.704 -999 3.386838 32.660271 -0.410446
2005-12-08 08:28:42 51°23.729 3°1.725 -999 3.386527 32.656948 -0.410446
2005-12-08 08:28:47 51°23.743 3°1.745 -999 3.382076 32.609322 -0.410446
2005-12-08 08:28:52 51°23.757 3°1.765 -999 3.382076 32.609322 -0.410446
2005-12-08 08:28:57 51°23.77 3°1.786 -999 3.386838 32.660271 -0.410446
2005-12-08 08:29:02 51°23.784 3°1.806 -999 3.38839 32.67602 -0.410446
2005-12-08 08:29:06 51°23.795 3°1.822 -999 3.38663 32.655458 -0.444155
2005-12-08 08:29:12 51°23.811 3°1.847 -999 3.390668 32.697791 -0.444155
2005-12-08 08:29:17 51°23.825 3°1.867 -999 3.385388 32.641301 -0.410446
2005-12-08 08:29:22 51°23.839 3°1.887 -999 3.385388 32.641301 -0.410446
2005-12-08 08:29:27 51°23.853 3°1.908 -999 3.390254 32.692494 -0.444155
2005-12-08 08:29:32 51°23.867 3°1.928 -999 3.389839 32.688063 -0.444155
2005-12-08 08:29:37 51°23.88 3°1.949 -999 3.386734 32.655699 -0.444155
2005-12-08 08:29:42 51°23.894 3°1.969 -999 3.388908 32.679826 -0.444155
2005-12-08 08:29:47 51°23.908 3°1.989 -999 3.387873 32.669615 -0.444155
2005-12-08 08:29:52 51°23.922 3°2.01 -999 3.387976 32.671589 -0.444155
2005-12-08 08:29:57 51°23.935 3°2.03 -999 3.387976 32.671589 -0.444155
2005-12-08 08:30:02 51°23.949 3°2.05 -999 3.390771 32.702367 -0.444155
2005-12-08 08:30:07 51°23.963 3°2.071 -999 3.389115 32.686375 -0.444155
2005-12-08 08:30:12 51°23.976 3°2.092 -999 3.391599 32.713833 -0.444155
2005-12-08 08:30:17 51°23.991 3°2.111 -999 3.389011 32.687 -0.444155
2005-12-08 08:30:22 51°24.003 3°2.133 -999 3.389011 32.687 -0.444155
2005-12-08 08:30:27 51°24.018 3°2.153 -999 3.384974 32.644661 -0.444155
2005-12-08 08:30:32 51°24.031 3°2.173 -999 3.387252 32.669899 -0.444155
2005-12-08 08:30:37 51°24.045 3°2.194 -999 3.389943 32.700441 -0.444155
2005-12-08 08:30:42 51°24.059 3°2.214 -999 3.38808 32.681363 -0.444155
2005-12-08 08:30:47 51°24.073 3°2.234 -999 3.387666 32.67693 -0.444155
2005-12-08 08:30:52 51°24.086 3°2.254 -999 3.387666 32.67693 -0.444155
2005-12-08 08:30:57 51°24.1 3°2.275 -999 3.386838 32.668933 -0.444155
2005-12-08 08:31:02 51°24.114 3°2.295 -999 3.385906 32.66156 -0.444155
2005-12-08 08:31:07 51°24.128 3°2.316 -999 3.384664 32.649996 -0.444155
2005-12-08 08:31:12 51°24.142 3°2.336 -999 3.385699 32.661943 -0.444155
2005-12-08 08:31:17 51°24.156 3°2.356 -999 3.388598 32.69384 -0.444155
2005-12-08 08:31:22 51°24.17 3°2.376 -999 3.385389 32.661218 -0.444155
2005-12-08 08:31:27 51°24.183 3°2.397 -999 3.385389 32.661218 -0.444155
2005-12-08 08:31:32 51°24.197 3°2.417 -999 3.38808 32.690033 -0.444155
2005-12-08 08:31:37 51°24.211 3°2.437 -999 3.386527 32.674275 -0.444155
2005-12-08 08:31:42 51°24.225 3°2.457 -999 3.384146 32.64792 -0.444155
2005-12-08 08:31:47 51°24.239 3°2.478 -999 3.387355 32.684009 -0.444155
2005-12-08 08:31:52 51°24.253 3°2.498 -999 3.38601 32.670468 -0.477864
2005-12-08 08:31:57 51°24.266 3°2.519 -999 3.38601 32.670468 -0.477864
2005-12-08 08:32:02 51°24.28 3°2.539 -999 3.386527 32.676876 -0.477864
2005-12-08 08:32:07 51°24.294 3°2.56 -999 3.388598 32.698177 -0.444155
2005-12-08 08:32:12 51°24.307 3°2.58 -999 3.389736 32.709503 -0.444155
2005-12-08 08:32:17 51°24.321 3°2.601 -999 3.389633 32.707526 -0.444155
2005-12-08 08:32:22 51°24.335 3°2.621 -999 3.389633 32.707526 -0.444155
2005-12-08 08:32:27 51°24.348 3°2.642 -999 3.3916 32.727719 -0.444155
2005-12-08 08:32:33 51°24.365 3°2.666 -999 3.389529 32.704682 -0.477864
2005-12-08 08:32:37 51°24.376 3°2.683 -999 3.390978 32.718464 -0.477864
2005-12-08 08:32:42 51°24.39 3°2.703 -999 3.377107 32.569124 -0.477864
2005-12-08 08:32:47 51°24.404 3°2.724 -999 3.392324 32.732006 -0.477864
2005-12-08 08:32:53 51°24.42 3°2.748 -999 3.391703 32.725355 -0.477864
2005-12-08 08:32:57 51°24.431 3°2.765 -999 3.391703 32.725355 -0.477864
2005-12-08 08:33:02 51°24.445 3°2.786 -999 3.392428 32.733114 -0.477864
2005-12-08 08:33:06 51°24.456 3°2.802 -999 3.392428 32.732246 -0.477864
2005-12-08 08:33:12 51°24.473 3°2.826 -999 3.392428 32.731378 -0.444155
2005-12-08 08:33:17 51°24.487 3°2.847 -999 3.39191 32.725836 -0.477864
2005-12-08 08:33:22 51°24.501 3°2.867 -999 3.390047 32.707621 -0.477864
2005-12-08 08:33:27 51°24.514 3°2.887 -999 3.390047 32.707621 -0.477864
2005-12-08 08:33:32 51°24.528 3°2.907 -999 3.392842 32.738416 -0.477864
2005-12-08 08:33:37 51°24.542 3°2.928 -999 3.389219 32.701357 -0.477864
2005-12-08 08:33:42 51°24.555 3°2.948 -999 3.390357 32.716154 -0.444155
2005-12-08 08:33:47 51°24.57 3°2.967 -999 3.389322 32.706804 -0.477864
2005-12-08 08:33:51 51°24.58 3°2.984 -999 3.387252 32.688104 -0.477864
2005-12-08 08:33:57 51°24.597 3°3.008 -999 3.387252 32.688104 -0.477864
2005-12-08 08:34:02 51°24.61 3°3.029 -999 3.388494 32.705746 -0.477864
2005-12-08 08:34:07 51°24.624 3°3.049 -999 3.387459 32.697263 -0.477864
2005-12-08 08:34:12 51°24.638 3°3.07 -999 3.385803 32.676054 -0.477864
2005-12-08 08:34:17 51°24.651 3°3.09 -999 3.391807 32.735148 -0.477864
2005-12-08 08:34:22 51°24.664 3°3.111 -999 3.391807 32.735148 -0.477864
2005-12-08 08:34:27 51°24.679 3°3.131 -999 3.393049 32.743239 -0.477864
2005-12-08 08:34:32 51°24.692 3°3.152 -999 3.394602 32.755524 -0.477864
2005-12-08 08:34:37 51°24.706 3°3.172 -999 3.39367 32.742942 -0.477864
2005-12-08 08:34:42 51°24.72 3°3.192 -999 3.396361 32.769154 -0.477864
2005-12-08 08:34:47 51°24.733 3°3.213 -999 3.396361 32.766547 -0.477864
2005-12-08 08:34:52 51°24.747 3°3.232 -999 3.398018 32.783412 -0.477864
2005-12-08 08:34:57 51°24.761 3°3.252 -999 3.398018 32.783412 -0.477864
2005-12-08 08:35:02 51°24.775 3°3.272 -999 3.398846 32.79054 -0.477864
2005-12-08 08:35:07 51°24.789 3°3.291 -999 3.39926 32.794974 -0.477864
2005-12-08 08:35:12 51°24.803 3°3.311 -999 3.39957 32.79743 -0.477864
2005-12-08 08:35:17 51°24.816 3°3.331 -999 3.396775 32.765767 -0.477864
2005-12-08 08:35:22 51°24.83 3°3.351 -999 3.399674 32.795929 -0.477864
2005-12-08 08:35:27 51°24.844 3°3.371 -999 3.399674 32.795929 -0.477864
2005-12-08 08:35:32 51°24.858 3°3.39 -999 3.400709 32.806143 -0.477864
2005-12-08 08:35:37 51°24.872 3°3.41 -999 3.401537 32.81501 -0.477864
2005-12-08 08:35:42 51°24.886 3°3.43 -999 3.39574 32.750343 -0.477864
2005-12-08 08:35:47 51°24.9 3°3.45 -999 3.40309 32.822933 -0.477864
2005-12-08 08:35:52 51°24.914 3°3.47 -999 3.40309 32.822933 -0.477864
2005-12-08 08:35:57 51°24.927 3°3.49 -999 3.403918 32.823099 -0.477864
2005-12-08 08:36:02 51°24.941 3°3.511 -999 3.399984 32.771449 -0.444155
2005-12-08 08:36:07 51°24.954 3°3.532 -999 3.410957 32.881895 -0.477864
2005-12-08 08:36:12 51°24.968 3°3.554 -999 3.415305 32.924065 -0.477864
2005-12-08 08:36:17 51°24.981 3°3.574 -999 3.409404 32.859188 -0.477864
2005-12-08 08:36:22 51°24.995 3°3.595 -999 3.409404 32.859188 -0.477864
2005-12-08 08:36:27 51°25.009 3°3.616 -999 3.415305 32.922321 -0.477864
2005-12-08 08:36:32 51°25.023 3°3.636 -999 3.415409 32.924301 -0.477864
2005-12-08 08:36:37 51°25.037 3°3.656 -999 3.409301 32.861561 -0.477864
2005-12-08 08:36:42 51°25.05 3°3.677 -999 3.41458 32.919797 -0.477864
2005-12-08 08:36:47 51°25.064 3°3.697 -999 3.41427 32.91473 -0.477864
2005-12-08 08:36:52 51°25.078 3°3.718 -999 3.413752 32.905705 -0.511574
2005-12-08 08:36:57 51°25.092 3°3.738 -999 3.413752 32.905705 -0.511574
2005-12-08 08:37:02 51°25.106 3°3.759 -999 3.417997 32.948507 -0.511574
2005-12-08 08:37:07 51°25.12 3°3.78 -999 3.417479 32.942968 -0.477864
2005-12-08 08:37:12 51°25.134 3°3.801 -999 3.41427 32.910372 -0.511574
2005-12-08 08:37:17 51°25.147 3°3.822 -999 3.413235 32.904524 -0.511574
2005-12-08 08:37:22 51°25.161 3°3.843 -999 3.406816 32.840199 -0.511574
2005-12-08 08:37:27 51°25.175 3°3.864 -999 3.406816 32.840199 -0.511574
2005-12-08 08:37:32 51°25.189 3°3.884 -999 3.410233 32.881979 -0.511574
2005-12-08 08:37:37 51°25.203 3°3.904 -999 3.407231 32.854202 -0.511574
2005-12-08 08:37:42 51°25.217 3°3.925 -999 3.407748 32.863225 -0.511574
2005-12-08 08:37:47 51°25.231 3°3.946 -999 3.40692 32.857843 -0.511574
2005-12-08 08:37:52 51°25.245 3°3.966 -999 3.40692 32.857843 -0.511574
2005-12-08 08:37:56 51°25.256 3°3.983 -999 3.404643 32.837816 -0.511574
2005-12-08 08:38:02 51°25.273 3°4.008 -999 3.402986 32.822695 -0.511574
2005-12-08 08:38:07 51°25.287 3°4.028 -999 3.404746 32.845018 -0.511574
2005-12-08 08:38:12 51°25.301 3°4.048 -999 3.403918 32.839633 -0.511574
2005-12-08 08:38:17 51°25.315 3°4.068 -999 3.403401 32.836703 -0.511574
2005-12-08 08:38:22 51°25.329 3°4.09 -999 3.403401 32.837574 -0.511574
2005-12-08 08:38:27 51°25.343 3°4.11 -999 3.403401 32.837574 -0.511574
2005-12-08 08:38:32 51°25.356 3°4.13 -999 3.403401 32.837574 -0.511574
2005-12-08 08:38:37 51°25.37 3°4.151 -999 3.399984 32.800993 -0.511574
2005-12-08 08:38:42 51°25.384 3°4.172 -999 3.402883 32.83116 -0.511574
2005-12-08 08:38:47 51°25.398 3°4.192 -999 3.402055 32.824033 -0.511574
2005-12-08 08:38:52 51°25.412 3°4.212 -999 3.40309 32.837731 -0.511574
2005-12-08 08:38:57 51°25.425 3°4.233 -999 3.40309 32.837731 -0.511574
2005-12-08 08:39:02 51°25.44 3°4.254 -999 3.398949 32.792518 -0.511574
2005-12-08 08:39:07 51°25.454 3°4.274 -999 3.405781 32.86133 -0.511574
2005-12-08 08:39:12 51°25.467 3°4.294 -999 3.407852 32.874787 -0.511574
2005-12-08 08:39:17 51°25.481 3°4.315 -999 3.411371 32.9055 -0.511574
2005-12-08 08:39:22 51°25.495 3°4.335 -999 3.411371 32.9055 -0.511574
2005-12-08 08:39:26 51°25.506 3°4.352 -999 3.410336 32.888315 -0.511574
2005-12-08 08:39:32 51°25.523 3°4.376 -999 3.411785 32.899471 -0.511574
2005-12-08 08:39:37 51°25.537 3°4.397 -999 3.413959 32.921869 -0.511574
2005-12-08 08:39:42 51°25.551 3°4.417 -999 3.413235 32.914984 -0.511574
2005-12-08 08:39:47 51°25.565 3°4.437 -999 3.411061 32.894329 -0.511574
2005-12-08 08:39:52 51°25.578 3°4.458 -999 3.411061 32.894329 -0.511574
2005-12-08 08:39:57 51°25.592 3°4.478 -999 3.411061 32.898687 -0.511574
2005-12-08 08:40:02 51°25.606 3°4.499 -999 3.409819 32.888874 -0.511574
2005-12-08 08:40:07 51°25.62 3°4.519 -999 3.405264 32.843595 -0.511574
2005-12-08 08:40:12 51°25.634 3°4.54 -999 3.407541 32.87059 -0.511574
2005-12-08 08:40:17 51°25.648 3°4.56 -999 3.406092 32.855944 -0.511574
2005-12-08 08:40:22 51°25.662 3°4.581 -999 3.409612 32.891888 -0.511574
2005-12-08 08:40:27 51°25.676 3°4.601 -999 3.409612 32.891888 -0.511574
2005-12-08 08:40:32 51°25.69 3°4.621 -999 3.409094 32.884602 -0.511574
2005-12-08 08:40:37 51°25.704 3°4.642 -999 3.410854 32.902574 -0.511574
2005-12-08 08:40:42 51°25.718 3°4.662 -999 3.40692 32.859585 -0.511574
2005-12-08 08:40:47 51°25.732 3°4.683 -999 3.411268 32.905263 -0.511574
2005-12-08 08:40:52 51°25.746 3°4.703 -999 3.412096 32.913259 -0.511574
2005-12-08 08:40:57 51°25.76 3°4.723 -999 3.412096 32.913259 -0.511574
2005-12-08 08:41:02 51°25.774 3°4.744 -999 3.407645 32.868214 -0.511574
2005-12-08 08:41:07 51°25.788 3°4.764 -999 3.41075 32.904954 -0.511574
2005-12-08 08:41:12 51°25.802 3°4.784 -999 3.409922 32.897829 -0.511574
2005-12-08 08:41:17 51°25.815 3°4.805 -999 3.406299 32.861645 -0.511574
2005-12-08 08:41:22 51°25.829 3°4.825 -999 3.406299 32.861645 -0.511574
2005-12-08 08:41:27 51°25.843 3°4.846 -999 3.401227 32.809075 -0.511574
2005-12-08 08:41:32 51°25.857 3°4.866 -999 3.402779 32.82744 -0.511574
2005-12-08 08:41:37 51°25.871 3°4.886 -999 3.408577 32.891265 -0.511574
2005-12-08 08:41:42 51°25.885 3°4.907 -999 3.408887 32.894592 -0.511574
2005-12-08 08:41:47 51°25.899 3°4.927 -999 3.406817 32.871545 -0.511574
2005-12-08 08:41:52 51°25.913 3°4.948 -999 3.410129 32.90528 -0.511574
2005-12-08 08:41:57 51°25.927 3°4.968 -999 3.410129 32.90528 -0.511574
2005-12-08 08:42:02 51°25.941 3°4.989 -999 3.411165 32.913751 -0.511574
2005-12-08 08:42:07 51°25.956 3°5.008 -999 3.408473 32.883181 -0.511574
2005-12-08 08:42:12 51°25.969 3°5.029 -999 3.410647 32.904718 -0.511574
2005-12-08 08:42:17 51°25.983 3°5.048 -999 3.411164 32.909388 -0.511574
2005-12-08 08:42:22 51°25.998 3°5.069 -999 3.411164 32.910261 -0.511574
2005-12-08 08:42:26 51°26.009 3°5.085 -999 3.411164 32.910261 -0.511574
2005-12-08 08:42:32 51°26.026 3°5.109 -999 3.411164 32.910261 -0.511574
2005-12-08 08:42:37 51°26.04 3°5.129 -999 3.410026 32.898066 -0.511574
2005-12-08 08:42:42 51°26.054 3°5.149 -999 3.4122 32.921347 -0.511574
2005-12-08 08:42:47 51°26.068 3°5.169 -999 3.411682 32.917549 -0.511574
2005-12-08 08:42:52 51°26.082 3°5.189 -999 3.413338 32.934416 -0.511574
2005-12-08 08:42:57 51°26.096 3°5.209 -999 3.413338 32.934416 -0.511574
2005-12-08 08:43:02 51°26.11 3°5.229 -999 3.412303 32.921583 -0.511574
2005-12-08 08:43:07 51°26.125 3°5.249 -999 3.41427 32.938283 -0.511574
2005-12-08 08:43:12 51°26.138 3°5.27 -999 3.416962 32.963615 -0.511574
2005-12-08 08:43:17 51°26.153 3°5.29 -999 3.41427 32.933046 -0.511574
2005-12-08 08:43:22 51°26.166 3°5.31 -999 3.41427 32.933046 -0.511574
2005-12-08 08:43:27 51°26.18 3°5.331 -999 3.417376 32.965429 -0.511574
2005-12-08 08:43:32 51°26.195 3°5.351 -999 3.417997 32.971206 -0.511574
2005-12-08 08:43:37 51°26.208 3°5.37 -999 3.418307 32.972785 -0.511574
2005-12-08 08:43:42 51°26.222 3°5.391 -999 3.420688 32.994786 -0.511574
2005-12-08 08:43:46 51°26.234 3°5.407 -999 3.422552 33.007744 -0.511574
2005-12-08 08:43:52 51°26.251 3°5.431 -999 3.422138 32.997193 -0.511574
2005-12-08 08:43:57 51°26.265 3°5.451 -999 3.422138 32.997193 -0.511574
2005-12-08 08:44:02 51°26.279 3°5.471 -999 3.425554 33.026769 -0.511574
2005-12-08 08:44:07 51°26.293 3°5.491 -999 3.426382 33.032135 -0.511574
2005-12-08 08:44:12 51°26.307 3°5.512 -999 3.4269 33.035927 -0.511574
2005-12-08 08:44:17 51°26.321 3°5.531 -999 3.425243 33.016451 -0.511574
2005-12-08 08:44:22 51°26.335 3°5.552 -999 3.428556 33.051031 -0.511574
2005-12-08 08:44:27 51°26.349 3°5.571 -999 3.428556 33.051031 -0.511574
2005-12-08 08:44:32 51°26.362 3°5.592 -999 3.424208 33.004499 -0.511574
2005-12-08 08:44:37 51°26.376 3°5.612 -999 3.428349 33.048815 -0.511574
2005-12-08 08:44:42 51°26.391 3°5.633 -999 3.427417 33.039717 -0.511574
2005-12-08 08:44:47 51°26.405 3°5.653 -999 3.427003 33.03616 -0.511574
2005-12-08 08:44:52 51°26.418 3°5.672 -999 3.427003 33.03616 -0.511574
2005-12-08 08:44:57 51°26.432 3°5.692 -999 3.426175 33.029919 -0.511574
2005-12-08 08:45:02 51°26.446 3°5.713 -999 3.427417 33.042341 -0.511574
2005-12-08 08:45:06 51°26.458 3°5.73 -999 3.426382 33.030387 -0.511574
2005-12-08 08:45:12 51°26.475 3°5.753 -999 3.426278 33.028404 -0.511574
2005-12-08 08:45:17 51°26.488 3°5.774 -999 3.424518 33.006075 -0.511574
2005-12-08 08:45:22 51°26.502 3°5.793 -999 3.424518 33.006075 -0.511574
2005-12-08 08:45:27 51°26.516 3°5.814 -999 3.424208 33.001005 -0.511574
2005-12-08 08:45:32 51°26.53 3°5.835 -999 3.429281 33.054412 -0.511574
2005-12-08 08:45:37 51°26.544 3°5.854 -999 3.427624 33.035812 -0.511574
2005-12-08 08:45:42 51°26.558 3°5.874 -999 3.42897 33.051089 -0.511574
2005-12-08 08:45:47 51°26.572 3°5.894 -999 3.426589 33.027357 -0.511574
2005-12-08 08:45:52 51°26.585 3°5.915 -999 3.423897 33.000302 -0.511574
2005-12-08 08:45:57 51°26.6 3°5.934 -999 3.423897 33.000302 -0.511574
2005-12-08 08:46:02 51°26.614 3°5.954 -999 3.427003 33.034411 -0.511574
2005-12-08 08:46:07 51°26.628 3°5.974 -999 3.42721 33.039251 -0.511574
2005-12-08 08:46:12 51°26.642 3°5.994 -999 3.426589 33.032603 -0.511574
2005-12-08 08:46:17 51°26.656 3°6.014 -999 3.422966 32.996446 -0.511574
2005-12-08 08:46:22 51°26.67 3°6.034 -999 3.425554 33.025894 -0.511574
2005-12-08 08:46:27 51°26.683 3°6.054 -999 3.425554 33.025894 -0.511574
2005-12-08 08:46:32 51°26.697 3°6.074 -999 3.424726 33.01703 -0.511574
2005-12-08 08:46:37 51°26.711 3°6.094 -999 3.424829 33.019012 -0.511574
2005-12-08 08:46:42 51°26.725 3°6.114 -999 3.425761 33.029859 -0.511574
2005-12-08 08:46:47 51°26.739 3°6.134 -999 3.424622 33.015047 -0.511574
2005-12-08 08:46:52 51°26.753 3°6.154 -999 3.424622 33.015047 -0.511574
2005-12-08 08:46:57 51°26.767 3°6.174 -999 3.427314 33.042983 -0.511574
2005-12-08 08:47:02 51°26.781 3°6.194 -999 3.427728 33.04654 -0.511574
2005-12-08 08:47:07 51°26.795 3°6.214 -999 3.428142 33.050098 -0.477864
2005-12-08 08:47:12 51°26.809 3°6.234 -999 3.429074 33.059196 -0.477864
2005-12-08 08:47:17 51°26.823 3°6.254 -999 3.429695 33.063219 -0.477864
2005-12-08 08:47:22 51°26.837 3°6.275 -999 3.428038 33.042867 -0.477864
2005-12-08 08:47:27 51°26.851 3°6.294 -999 3.428038 33.042867 -0.477864
2005-12-08 08:47:32 51°26.864 3°6.315 -999 3.429798 33.059077 -0.477864
2005-12-08 08:47:37 51°26.879 3°6.334 -999 3.4269 33.027184 -0.477864
2005-12-08 08:47:42 51°26.892 3°6.355 -999 3.426796 33.026076 -0.477864
2005-12-08 08:47:47 51°26.907 3°6.373 -999 3.42369 32.992847 -0.477864
2005-12-08 08:47:52 51°26.92 3°6.394 -999 3.430005 33.059543 -0.477864
2005-12-08 08:47:57 51°26.934 3°6.414 -999 3.430005 33.059543 -0.477864
2005-12-08 08:48:02 51°26.949 3°6.433 -999 3.429798 33.058202 -0.477864
2005-12-08 08:48:07 51°26.962 3°6.453 -999 3.43249 33.087884 -0.477864
2005-12-08 08:48:12 51°26.976 3°6.471 -999 3.428452 33.0438 -0.477864
2005-12-08 08:48:17 51°26.99 3°6.492 -999 3.431662 33.075519 -0.477864
2005-12-08 08:48:22 51°27.004 3°6.511 -999 3.431662 33.075519 -0.477864
2005-12-08 08:48:27 51°27.018 3°6.532 -999 3.429591 33.052487 -0.477864